Observation data for Fort Chadbourne on 03/13/2018      Previous  Date       Current Mesonet Observations  Soil Data  Daily Summary Page  Observations in Plain Language
KCH1 130500Z 04003KT 07/M03 A3026 RMK A01 T00721034  RH  047%=      5-min Rain = 0
KCH1 130501Z 04004KT 07/M03 A3026 RMK A01 T00721033  RH  047%=      5-min Rain = 0
KCH1 130502Z 04003KT 07/M03 A3026 RMK A01 T00721033  RH  047%=      5-min Rain = 0
KCH1 130503Z 04003KT 07/M03 A3026 RMK A01 T00711034  RH  047%=      5-min Rain = 0
KCH1 130504Z 03004KT 07/M03 A3026 RMK A01 T00711034  RH  047%=      5-min Rain = 0
KCH1 130505Z 04004KT 07/M03 A3026 RMK A01 T00711034  RH  047%=      5-min Rain = 0
KCH1 130506Z 03003KT 07/M03 A3026 RMK A01 T00701034  RH  047%=      5-min Rain = 0
KCH1 130507Z 03003KT 07/M03 A3026 RMK A01 T00701034  RH  048%=      5-min Rain = 0
KCH1 130508Z 03003KT 07/M03 A3026 RMK A01 T00701033  RH  048%=      5-min Rain = 0
KCH1 130509Z 03003KT 07/M03 A3026 RMK A01 T00701034  RH  048%=      5-min Rain = 0
KCH1 130510Z 02003KT 07/M03 A3026 RMK A01 T00701034  RH  048%=      5-min Rain = 0
KCH1 130511Z 02003KT 07/M03 A3027 RMK A01 T00701034  RH  048%=      5-min Rain = 0
KCH1 130512Z 02003KT 07/M03 A3027 RMK A01 T00701034  RH  048%=      5-min Rain = 0
KCH1 130513Z 02003KT 07/M03 A3027 RMK A01 T00691034  RH  048%=      5-min Rain = 0
KCH1 130514Z 02003KT 07/M03 A3027 RMK A01 T00691033  RH  048%=      5-min Rain = 0
KCH1 130515Z 01003KT 07/M03 A3027 RMK A01 T00691034  RH  048%=      5-min Rain = 0
KCH1 130516Z 01003KT 07/M03 A3027 RMK A01 T00691033  RH  048%=      5-min Rain = 0
KCH1 130517Z 02004KT 07/M03 A3027 RMK A01 T00691033  RH  048%=      5-min Rain = 0
KCH1 130518Z 02004KT 07/M03 A3027 RMK A01 T00691034  RH  048%=      5-min Rain = 0
KCH1 130519Z 02004KT 07/M03 A3027 RMK A01 T00691033  RH  048%=      5-min Rain = 0
KCH1 130520Z 02004KT 07/M03 A3027 RMK A01 T00681034  RH  048%=      5-min Rain = 0
KCH1 130521Z 01004KT 07/M03 A3027 RMK A01 T00691034  RH  048%=      5-min Rain = 0
KCH1 130522Z 01004KT 07/M03 A3027 RMK A01 T00691034  RH  048%=      5-min Rain = 0
KCH1 130523Z 01004KT 07/M03 A3027 RMK A01 T00701034  RH  047%=      5-min Rain = 0
KCH1 130524Z 01004KT 07/M03 A3027 RMK A01 T00701034  RH  048%=      5-min Rain = 0
KCH1 130525Z 36003KT 07/M03 A3027 RMK A01 T00691034  RH  048%=      5-min Rain = 0
KCH1 130526Z 01003KT 07/M03 A3027 RMK A01 T00701032  RH  048%=      5-min Rain = 0
KCH1 130527Z 02003KT 07/M03 A3027 RMK A01 T00701031  RH  049%=      5-min Rain = 0
KCH1 130528Z 02003KT 07/M03 A3026 RMK A01 T00711031  RH  048%=      5-min Rain = 0
KCH1 130529Z 03003KT 07/M03 A3026 RMK A01 T00721031  RH  048%=      5-min Rain = 0
KCH1 130530Z 03003KT 07/M03 A3026 RMK A01 T00721031  RH  048%=      5-min Rain = 0
KCH1 130531Z 04003KT 07/M03 A3026 RMK A01 T00731032  RH  047%=      5-min Rain = 0
KCH1 130532Z 05002KT 07/M03 A3026 RMK A01 T00741033  RH  046%=      5-min Rain = 0
KCH1 130533Z 04002KT 08/M03 A3026 RMK A01 T00751034  RH  046%=      5-min Rain = 0
KCH1 130534Z 04003KT 08/M04 A3026 RMK A01 T00751035  RH  046%=      5-min Rain = 0
KCH1 130535Z 04003KT 08/M03 A3026 RMK A01 T00761034  RH  045%=      5-min Rain = 0
KCH1 130536Z 04004KT 08/M04 A3026 RMK A01 T00761035  RH  045%=      5-min Rain = 0
KCH1 130537Z 04004KT 08/M04 A3026 RMK A01 T00761035  RH  045%=      5-min Rain = 0
KCH1 130538Z 04003KT 08/M04 A3026 RMK A01 T00761035  RH  045%=      5-min Rain = 0
KCH1 130539Z 03003KT 08/M04 A3026 RMK A01 T00761035  RH  045%=      5-min Rain = 0
KCH1 130540Z 03003KT 08/M04 A3026 RMK A01 T00761035  RH  045%=      5-min Rain = 0
KCH1 130541Z 02003KT 08/M04 A3026 RMK A01 T00761035  RH  045%=      5-min Rain = 0
KCH1 130542Z 03003KT 08/M04 A3026 RMK A01 T00751035  RH  045%=      5-min Rain = 0
KCH1 130543Z 03002KT 08/M04 A3026 RMK A01 T00751035  RH  046%=      5-min Rain = 0
KCH1 130544Z 02002KT 07/M04 A3026 RMK A01 T00741035  RH  046%=      5-min Rain = 0
KCH1 130545Z 01002KT 07/M04 A3026 RMK A01 T00741035  RH  046%=      5-min Rain = 0
KCH1 130546Z 01002KT 07/M04 A3026 RMK A01 T00741035  RH  046%=      5-min Rain = 0
KCH1 130547Z 01002KT 07/M04 A3026 RMK A01 T00741035  RH  046%=      5-min Rain = 0
KCH1 130548Z 01002KT 07/M03 A3026 RMK A01 T00741034  RH  046%=      5-min Rain = 0
KCH1 130549Z 01002KT 07/M03 A3026 RMK A01 T00731034  RH  046%=      5-min Rain = 0
KCH1 130550Z 01002KT 07/M03 A3026 RMK A01 T00721034  RH  047%=      5-min Rain = 0
KCH1 130551Z 01002KT 07/M03 A3026 RMK A01 T00711034  RH  047%=      5-min Rain = 0
KCH1 130552Z 02003KT 07/M03 A3026 RMK A01 T00701034  RH  047%=      5-min Rain = 0
KCH1 130553Z 02002KT 07/M03 A3026 RMK A01 T00701034  RH  048%=      5-min Rain = 0
KCH1 130554Z 02002KT 07/M03 A3026 RMK A01 T00691034  RH  048%=      5-min Rain = 0
KCH1 130555Z 02002KT 07/M03 A3026 RMK A01 T00681034  RH  048%=      5-min Rain = 0
KCH1 130556Z 01002KT 07/M03 A3026 RMK A01 T00681033  RH  048%=      5-min Rain = 0
KCH1 130557Z 01002KT 07/M03 A3026 RMK A01 T00671032  RH  049%=      5-min Rain = 0
KCH1 130558Z 01002KT 07/M03 A3026 RMK A01 T00661029  RH  050%=      5-min Rain = 0
KCH1 130559Z 02002KT 07/M03 A3026 RMK A01 T00651027  RH  052%=      5-min Rain = 0
KCH1 130600Z 02002KT 06/M03 A3026 RMK A01 T00641027  RH  052%=      5-min Rain = 0
KCH1 130601Z 02002KT 06/M03 A3026 RMK A01 T00641027  RH  052%=      5-min Rain = 0
KCH1 130602Z 02002KT 06/M03 A3026 RMK A01 T00641026  RH  052%=      5-min Rain = 0
KCH1 130603Z 03002KT 06/M03 A3026 RMK A01 T00641028  RH  052%=      5-min Rain = 0
KCH1 130604Z 03003KT 06/M03 A3026 RMK A01 T00641028  RH  051%=      5-min Rain = 0
KCH1 130605Z 02002KT 07/M03 A3026 RMK A01 T00651030  RH  051%=      5-min Rain = 0
KCH1 130606Z 01002KT 07/M03 A3026 RMK A01 T00651030  RH  050%=      5-min Rain = 0
KCH1 130607Z 02003KT 07/M03 A3026 RMK A01 T00651031  RH  050%=      5-min Rain = 0
KCH1 130608Z 02002KT 07/M03 A3026 RMK A01 T00651032  RH  050%=      5-min Rain = 0
KCH1 130609Z 02002KT 07/M03 A3026 RMK A01 T00661032  RH  049%=      5-min Rain = 0
KCH1 130610Z 02002KT 07/M03 A3026 RMK A01 T00661032  RH  050%=      5-min Rain = 0
KCH1 130611Z 04003KT 07/M03 A3026 RMK A01 T00661032  RH  049%=      5-min Rain = 0
KCH1 130612Z 02003KT 07/M04 A3026 RMK A01 T00661035  RH  049%=      5-min Rain = 0
KCH1 130613Z 03003KT 07/M03 A3026 RMK A01 T00671034  RH  049%=      5-min Rain = 0
KCH1 130614Z 03002KT 07/M03 A3026 RMK A01 T00671034  RH  049%=      5-min Rain = 0
KCH1 130615Z 03003KT 07/M03 A3026 RMK A01 T00671034  RH  049%=      5-min Rain = 0
KCH1 130616Z 03003KT 07/M04 A3026 RMK A01 T00671035  RH  048%=      5-min Rain = 0
KCH1 130617Z 03003KT 07/M04 A3026 RMK A01 T00671036  RH  048%=      5-min Rain = 0
KCH1 130618Z 02003KT 07/M04 A3026 RMK A01 T00681035  RH  048%=      5-min Rain = 0
KCH1 130619Z 03003KT 07/M04 A3026 RMK A01 T00681035  RH  048%=      5-min Rain = 0
KCH1 130620Z 04003KT 07/M04 A3026 RMK A01 T00681035  RH  048%=      5-min Rain = 0
KCH1 130621Z 03003KT 07/M04 A3026 RMK A01 T00671035  RH  048%=      5-min Rain = 0
KCH1 130622Z 03003KT 07/M04 A3026 RMK A01 T00671036  RH  048%=      5-min Rain = 0
KCH1 130623Z 03003KT 07/M04 A3026 RMK A01 T00671036  RH  048%=      5-min Rain = 0
KCH1 130624Z 04003KT 07/M04 A3026 RMK A01 T00681036  RH  048%=      5-min Rain = 0
KCH1 130625Z 03003KT 07/M04 A3026 RMK A01 T00681036  RH  048%=      5-min Rain = 0
KCH1 130626Z 03003KT 07/M04 A3026 RMK A01 T00681036  RH  048%=      5-min Rain = 0
KCH1 130627Z 03002KT 07/M04 A3026 RMK A01 T00681036  RH  048%=      5-min Rain = 0
KCH1 130628Z 03003KT 07/M04 A3026 RMK A01 T00681036  RH  047%=      5-min Rain = 0
KCH1 130629Z 03003KT 07/M04 A3026 RMK A01 T00671037  RH  047%=      5-min Rain = 0
KCH1 130630Z 03003KT 07/M04 A3026 RMK A01 T00671036  RH  048%=      5-min Rain = 0
KCH1 130631Z 02002KT 07/M03 A3026 RMK A01 T00661033  RH  049%=      5-min Rain = 0
KCH1 130632Z 04003KT 07/M03 A3026 RMK A01 T00651033  RH  050%=      5-min Rain = 0
KCH1 130633Z 04002KT 06/M03 A3026 RMK A01 T00641034  RH  049%=      5-min Rain = 0
KCH1 130634Z 03002KT 07/M04 A3026 RMK A01 T00651036  RH  049%=      5-min Rain = 0
KCH1 130635Z 04002KT 07/M04 A3026 RMK A01 T00651036  RH  048%=      5-min Rain = 0
KCH1 130636Z 04003KT 07/M04 A3026 RMK A01 T00651036  RH  048%=      5-min Rain = 0
KCH1 130637Z 04003KT 07/M04 A3026 RMK A01 T00651036  RH  048%=      5-min Rain = 0
KCH1 130638Z 03003KT 07/M04 A3026 RMK A01 T00651037  RH  048%=      5-min Rain = 0
KCH1 130639Z 04003KT 07/M04 A3026 RMK A01 T00661037  RH  048%=      5-min Rain = 0
KCH1 130640Z 04003KT 07/M04 A3026 RMK A01 T00661037  RH  048%=      5-min Rain = 0
KCH1 130641Z 03003KT 07/M04 A3026 RMK A01 T00661037  RH  048%=      5-min Rain = 0
KCH1 130642Z 04003KT 07/M04 A3026 RMK A01 T00661037  RH  048%=      5-min Rain = 0
KCH1 130643Z 03003KT 07/M04 A3026 RMK A01 T00661037  RH  048%=      5-min Rain = 0
KCH1 130644Z 04003KT 07/M04 A3026 RMK A01 T00661037  RH  048%=      5-min Rain = 0
KCH1 130645Z 03002KT 07/M04 A3026 RMK A01 T00651037  RH  048%=      5-min Rain = 0
KCH1 130646Z 04003KT 07/M04 A3026 RMK A01 T00651037  RH  048%=      5-min Rain = 0
KCH1 130647Z 04003KT 07/M04 A3026 RMK A01 T00651037  RH  048%=      5-min Rain = 0
KCH1 130648Z 04003KT 06/M04 A3026 RMK A01 T00641037  RH  048%=      5-min Rain = 0
KCH1 130649Z 04003KT 06/M04 A3026 RMK A01 T00641037  RH  048%=      5-min Rain = 0
KCH1 130650Z 04003KT 06/M04 A3025 RMK A01 T00641038  RH  048%=      5-min Rain = 0
KCH1 130651Z 03002KT 06/M04 A3025 RMK A01 T00641038  RH  048%=      5-min Rain = 0
KCH1 130652Z 04003KT 06/M04 A3025 RMK A01 T00641038  RH  048%=      5-min Rain = 0
KCH1 130653Z 04003KT 06/M04 A3025 RMK A01 T00641038  RH  048%=      5-min Rain = 0
KCH1 130654Z 05003KT 06/M04 A3025 RMK A01 T00641038  RH  048%=      5-min Rain = 0
KCH1 130655Z 04003KT 06/M04 A3025 RMK A01 T00631037  RH  049%=      5-min Rain = 0
KCH1 130656Z 04003KT 06/M04 A3025 RMK A01 T00621038  RH  049%=      5-min Rain = 0
KCH1 130657Z 04003KT 06/M04 A3025 RMK A01 T00621038  RH  049%=      5-min Rain = 0
KCH1 130658Z 05003KT 06/M04 A3025 RMK A01 T00621038  RH  049%=      5-min Rain = 0
KCH1 130659Z 04003KT 06/M04 A3025 RMK A01 T00611038  RH  049%=      5-min Rain = 0
KCH1 130700Z 04003KT 06/M04 A3025 RMK A01 T00611037  RH  049%=      5-min Rain = 0
KCH1 130701Z 04003KT 06/M04 A3025 RMK A01 T00611038  RH  049%=      5-min Rain = 0
KCH1 130702Z 04003KT 06/M04 A3025 RMK A01 T00611037  RH  049%=      5-min Rain = 0
KCH1 130703Z 04003KT 06/M04 A3025 RMK A01 T00601038  RH  049%=      5-min Rain = 0
KCH1 130704Z 04003KT 06/M04 A3025 RMK A01 T00601038  RH  049%=      5-min Rain = 0
KCH1 130705Z 04002KT 06/M04 A3025 RMK A01 T00601038  RH  049%=      5-min Rain = 0
KCH1 130706Z 04003KT 06/M04 A3025 RMK A01 T00601038  RH  050%=      5-min Rain = 0
KCH1 130707Z 04003KT 06/M04 A3025 RMK A01 T00601037  RH  050%=      5-min Rain = 0
KCH1 130708Z 03003KT 06/M04 A3025 RMK A01 T00581036  RH  051%=      5-min Rain = 0
KCH1 130709Z 04003KT 06/M04 A3025 RMK A01 T00571035  RH  052%=      5-min Rain = 0
KCH1 130710Z 04003KT 06/M04 A3025 RMK A01 T00561035  RH  052%=      5-min Rain = 0
KCH1 130711Z 04003KT 06/M04 A3025 RMK A01 T00551035  RH  052%=      5-min Rain = 0
KCH1 130712Z 03003KT 06/M04 A3025 RMK A01 T00551035  RH  052%=      5-min Rain = 0
KCH1 130713Z 03003KT 05/M03 A3025 RMK A01 T00541034  RH  053%=      5-min Rain = 0
KCH1 130714Z 04003KT 05/M03 A3025 RMK A01 T00541034  RH  053%=      5-min Rain = 0
KCH1 130715Z 04003KT 05/M04 A3025 RMK A01 T00531035  RH  053%=      5-min Rain = 0
KCH1 130716Z 04003KT 05/M04 A3025 RMK A01 T00531035  RH  053%=      5-min Rain = 0
KCH1 130717Z 04003KT 05/M04 A3025 RMK A01 T00531035  RH  053%=      5-min Rain = 0
KCH1 130718Z 04002KT 05/M04 A3025 RMK A01 T00531035  RH  053%=      5-min Rain = 0
KCH1 130719Z 04002KT 05/M04 A3025 RMK A01 T00531035  RH  053%=      5-min Rain = 0
KCH1 130720Z 04003KT 05/M04 A3025 RMK A01 T00531035  RH  053%=      5-min Rain = 0
KCH1 130721Z 04003KT 05/M04 A3025 RMK A01 T00531035  RH  053%=      5-min Rain = 0
KCH1 130722Z 04003KT 05/M04 A3025 RMK A01 T00531035  RH  053%=      5-min Rain = 0
KCH1 130723Z 04003KT 05/M04 A3025 RMK A01 T00531036  RH  053%=      5-min Rain = 0
KCH1 130724Z 04003KT 05/M04 A3025 RMK A01 T00541036  RH  052%=      5-min Rain = 0
KCH1 130725Z 04003KT 05/M04 A3025 RMK A01 T00541036  RH  052%=      5-min Rain = 0
KCH1 130726Z 05003KT 06/M04 A3025 RMK A01 T00551036  RH  052%=      5-min Rain = 0
KCH1 130727Z 05003KT 06/M04 A3025 RMK A01 T00561037  RH  051%=      5-min Rain = 0
KCH1 130728Z 05003KT 06/M04 A3025 RMK A01 T00571037  RH  051%=      5-min Rain = 0
KCH1 130729Z 05003KT 06/M04 A3025 RMK A01 T00571037  RH  051%=      5-min Rain = 0
KCH1 130730Z 05003KT 06/M04 A3025 RMK A01 T00581037  RH  051%=      5-min Rain = 0
KCH1 130731Z 05003KT 06/M04 A3025 RMK A01 T00581037  RH  050%=      5-min Rain = 0
KCH1 130732Z 04003KT 06/M04 A3025 RMK A01 T00581037  RH  050%=      5-min Rain = 0
KCH1 130733Z 05003KT 06/M04 A3025 RMK A01 T00581037  RH  050%=      5-min Rain = 0
KCH1 130734Z 04003KT 06/M04 A3025 RMK A01 T00581037  RH  050%=      5-min Rain = 0
KCH1 130735Z 04003KT 06/M04 A3025 RMK A01 T00581037  RH  050%=      5-min Rain = 0
KCH1 130736Z 05003KT 06/M04 A3025 RMK A01 T00581037  RH  050%=      5-min Rain = 0
KCH1 130737Z 04003KT 06/M04 A3025 RMK A01 T00581037  RH  050%=      5-min Rain = 0
KCH1 130738Z 04003KT 06/M04 A3025 RMK A01 T00581037  RH  051%=      5-min Rain = 0
KCH1 130739Z 04003KT 06/M04 A3025 RMK A01 T00571037  RH  051%=      5-min Rain = 0
KCH1 130740Z 04002KT 06/M04 A3025 RMK A01 T00571037  RH  051%=      5-min Rain = 0
KCH1 130741Z 05002KT 06/M04 A3025 RMK A01 T00571037  RH  051%=      5-min Rain = 0
KCH1 130742Z 04002KT 06/M04 A3025 RMK A01 T00571037  RH  051%=      5-min Rain = 0
KCH1 130743Z 04002KT 06/M04 A3025 RMK A01 T00561037  RH  051%=      5-min Rain = 0
KCH1 130744Z 04003KT 06/M04 A3025 RMK A01 T00571037  RH  051%=      5-min Rain = 0
KCH1 130745Z 04002KT 06/M04 A3025 RMK A01 T00561037  RH  051%=      5-min Rain = 0
KCH1 130746Z 04002KT 06/M04 A3025 RMK A01 T00551036  RH  052%=      5-min Rain = 0
KCH1 130747Z 04003KT 05/M04 A3025 RMK A01 T00541036  RH  052%=      5-min Rain = 0
KCH1 130748Z 05003KT 06/M04 A3025 RMK A01 T00551037  RH  052%=      5-min Rain = 0
KCH1 130749Z 03003KT 06/M04 A3025 RMK A01 T00561036  RH  052%=      5-min Rain = 0
KCH1 130750Z 04003KT 06/M04 A3025 RMK A01 T00561036  RH  052%=      5-min Rain = 0
KCH1 130751Z 04004KT 06/M04 A3025 RMK A01 T00561036  RH  051%=      5-min Rain = 0
KCH1 130752Z 04003KT 06/M04 A3024 RMK A01 T00561037  RH  051%=      5-min Rain = 0
KCH1 130753Z 04003KT 06/M04 A3024 RMK A01 T00571037  RH  051%=      5-min Rain = 0
KCH1 130754Z 05003KT 06/M04 A3024 RMK A01 T00581037  RH  051%=      5-min Rain = 0
KCH1 130755Z 05003KT 06/M04 A3024 RMK A01 T00581037  RH  050%=      5-min Rain = 0
KCH1 130756Z 04003KT 06/M04 A3024 RMK A01 T00581037  RH  050%=      5-min Rain = 0
KCH1 130757Z 04003KT 06/M04 A3024 RMK A01 T00581037  RH  050%=      5-min Rain = 0
KCH1 130758Z 05003KT 06/M04 A3024 RMK A01 T00581038  RH  050%=      5-min Rain = 0
KCH1 130759Z 04003KT 06/M04 A3024 RMK A01 T00581038  RH  050%=      5-min Rain = 0
KCH1 130800Z 05004KT 06/M04 A3024 RMK A01 T00581038  RH  050%=      5-min Rain = 0
KCH1 130801Z 05004KT 06/M04 A3024 RMK A01 T00581038  RH  050%=      5-min Rain = 0
KCH1 130802Z 05003KT 06/M04 A3024 RMK A01 T00581038  RH  050%=      5-min Rain = 0
KCH1 130803Z 04003KT 06/M04 A3024 RMK A01 T00581038  RH  050%=      5-min Rain = 0
KCH1 130804Z 05003KT 06/M04 A3024 RMK A01 T00581038  RH  050%=      5-min Rain = 0
KCH1 130805Z 05003KT 06/M04 A3024 RMK A01 T00581038  RH  050%=      5-min Rain = 0
KCH1 130806Z 05003KT 06/M04 A3024 RMK A01 T00581038  RH  050%=      5-min Rain = 0
KCH1 130807Z 05004KT 06/M04 A3024 RMK A01 T00581038  RH  050%=      5-min Rain = 0
KCH1 130808Z 04004KT 06/M04 A3024 RMK A01 T00571038  RH  050%=      5-min Rain = 0
KCH1 130809Z 04004KT 06/M04 A3024 RMK A01 T00571038  RH  050%=      5-min Rain = 0
KCH1 130810Z 04004KT 06/M04 A3024 RMK A01 T00571038  RH  051%=      5-min Rain = 0
KCH1 130811Z 04004KT 06/M04 A3024 RMK A01 T00561038  RH  051%=      5-min Rain = 0
KCH1 130812Z 04004KT 06/M04 A3024 RMK A01 T00561038  RH  051%=      5-min Rain = 0
KCH1 130813Z 04004KT 06/M04 A3024 RMK A01 T00561038  RH  051%=      5-min Rain = 0
KCH1 130814Z 04004KT 06/M04 A3024 RMK A01 T00561037  RH  051%=      5-min Rain = 0
KCH1 130815Z 04004KT 06/M04 A3024 RMK A01 T00561037  RH  051%=      5-min Rain = 0
KCH1 130816Z 05004KT 06/M04 A3024 RMK A01 T00551037  RH  051%=      5-min Rain = 0
KCH1 130817Z 05004KT 06/M04 A3024 RMK A01 T00551037  RH  051%=      5-min Rain = 0
KCH1 130818Z 05005KT 06/M04 A3024 RMK A01 T00551036  RH  052%=      5-min Rain = 0
KCH1 130819Z 05005KT 06/M04 A3024 RMK A01 T00551037  RH  052%=      5-min Rain = 0
KCH1 130820Z 05005KT 06/M04 A3024 RMK A01 T00551036  RH  052%=      5-min Rain = 0
KCH1 130821Z 05005KT 06/M04 A3024 RMK A01 T00551037  RH  052%=      5-min Rain = 0
KCH1 130822Z 05005KT 06/M04 A3024 RMK A01 T00551036  RH  052%=      5-min Rain = 0
KCH1 130823Z 05005KT 05/M04 A3024 RMK A01 T00541036  RH  052%=      5-min Rain = 0
KCH1 130824Z 05005KT 05/M04 A3024 RMK A01 T00541036  RH  052%=      5-min Rain = 0
KCH1 130825Z 05006KT 05/M04 A3024 RMK A01 T00531036  RH  053%=      5-min Rain = 0
KCH1 130826Z 05005KT 05/M04 A3024 RMK A01 T00531035  RH  053%=      5-min Rain = 0
KCH1 130827Z 05005KT 05/M04 A3024 RMK A01 T00531035  RH  053%=      5-min Rain = 0
KCH1 130828Z 05005KT 05/M03 A3024 RMK A01 T00531034  RH  053%=      5-min Rain = 0
KCH1 130829Z 05005KT 05/M03 A3024 RMK A01 T00531034  RH  054%=      5-min Rain = 0
KCH1 130830Z 05005KT 05/M03 A3024 RMK A01 T00531033  RH  054%=      5-min Rain = 0
KCH1 130831Z 05004KT 05/M03 A3024 RMK A01 T00531033  RH  054%=      5-min Rain = 0
KCH1 130832Z 06004KT 05/M03 A3024 RMK A01 T00531033  RH  054%=      5-min Rain = 0
KCH1 130833Z 06004KT 05/M03 A3024 RMK A01 T00531033  RH  054%=      5-min Rain = 0
KCH1 130834Z 06004KT 05/M03 A3024 RMK A01 T00531032  RH  054%=      5-min Rain = 0
KCH1 130835Z 06004KT 05/M03 A3024 RMK A01 T00531032  RH  054%=      5-min Rain = 0
KCH1 130836Z 07004KT 05/M03 A3024 RMK A01 T00531032  RH  054%=      5-min Rain = 0
KCH1 130837Z 07003KT 05/M03 A3024 RMK A01 T00541032  RH  054%=      5-min Rain = 0
KCH1 130838Z 07004KT 05/M03 A3024 RMK A01 T00541032  RH  054%=      5-min Rain = 0
KCH1 130839Z 07004KT 05/M03 A3024 RMK A01 T00541032  RH  054%=      5-min Rain = 0
KCH1 130840Z 07004KT 06/M03 A3024 RMK A01 T00551032  RH  053%=      5-min Rain = 0
KCH1 130841Z 07004KT 06/M03 A3023 RMK A01 T00551032  RH  053%=      5-min Rain = 0
KCH1 130842Z 07004KT 06/M03 A3023 RMK A01 T00561033  RH  053%=      5-min Rain = 0
KCH1 130843Z 07004KT 06/M03 A3023 RMK A01 T00561033  RH  053%=      5-min Rain = 0
KCH1 130844Z 07003KT 06/M03 A3023 RMK A01 T00571033  RH  053%=      5-min Rain = 0
KCH1 130845Z 07004KT 06/M03 A3023 RMK A01 T00571033  RH  053%=      5-min Rain = 0
KCH1 130846Z 07004KT 06/M03 A3023 RMK A01 T00581032  RH  053%=      5-min Rain = 0
KCH1 130847Z 07004KT 06/M03 A3023 RMK A01 T00581032  RH  052%=      5-min Rain = 0
KCH1 130848Z 07004KT 06/M03 A3023 RMK A01 T00581032  RH  052%=      5-min Rain = 0
KCH1 130849Z 07004KT 06/M03 A3023 RMK A01 T00591032  RH  052%=      5-min Rain = 0
KCH1 130850Z 07005KT 06/M03 A3023 RMK A01 T00591032  RH  052%=      5-min Rain = 0
KCH1 130851Z 07005KT 06/M03 A3023 RMK A01 T00601033  RH  051%=      5-min Rain = 0
KCH1 130852Z 06005KT 06/M03 A3023 RMK A01 T00601033  RH  051%=      5-min Rain = 0
KCH1 130853Z 06005KT 06/M03 A3023 RMK A01 T00611033  RH  051%=      5-min Rain = 0
KCH1 130854Z 06004KT 06/M03 A3023 RMK A01 T00611032  RH  051%=      5-min Rain = 0
KCH1 130855Z 06005KT 06/M03 A3023 RMK A01 T00611032  RH  051%=      5-min Rain = 0
KCH1 130856Z 06004KT 06/M03 A3023 RMK A01 T00611032  RH  051%=      5-min Rain = 0
KCH1 130857Z 06004KT 06/M03 A3023 RMK A01 T00611032  RH  051%=      5-min Rain = 0
KCH1 130858Z 06004KT 06/M03 A3023 RMK A01 T00611031  RH  052%=      5-min Rain = 0
KCH1 130859Z 06004KT 06/M03 A3023 RMK A01 T00601031  RH  052%=      5-min Rain = 0
KCH1 130900Z 06005KT 06/M03 A3023 RMK A01 T00591032  RH  052%=      5-min Rain = 0
KCH1 130901Z 06005KT 06/M03 A3023 RMK A01 T00591032  RH  052%=      5-min Rain = 0
KCH1 130902Z 06004KT 06/M03 A3023 RMK A01 T00591032  RH  052%=      5-min Rain = 0
KCH1 130903Z 06005KT 06/M03 A3023 RMK A01 T00591032  RH  052%=      5-min Rain = 0
KCH1 130904Z 06005KT 06/M03 A3023 RMK A01 T00591032  RH  052%=      5-min Rain = 0
KCH1 130905Z 07005KT 06/M03 A3023 RMK A01 T00591032  RH  052%=      5-min Rain = 0
KCH1 130906Z 07005KT 06/M03 A3023 RMK A01 T00581033  RH  052%=      5-min Rain = 0
KCH1 130907Z 07005KT 06/M03 A3023 RMK A01 T00581033  RH  052%=      5-min Rain = 0
KCH1 130908Z 06005KT 06/M03 A3023 RMK A01 T00591033  RH  052%=      5-min Rain = 0
KCH1 130909Z 06004KT 06/M03 A3023 RMK A01 T00591033  RH  052%=      5-min Rain = 0
KCH1 130910Z 06005KT 06/M03 A3023 RMK A01 T00591033  RH  052%=      5-min Rain = 0
KCH1 130911Z 06005KT 06/M03 A3023 RMK A01 T00591033  RH  052%=      5-min Rain = 0
KCH1 130912Z 06005KT 06/M03 A3023 RMK A01 T00571034  RH  052%=      5-min Rain = 0
KCH1 130913Z 06005KT 06/M03 A3023 RMK A01 T00571034  RH  052%=      5-min Rain = 0
KCH1 130914Z 06005KT 06/M03 A3023 RMK A01 T00571034  RH  052%=      5-min Rain = 0
KCH1 130915Z 05005KT 06/M03 A3023 RMK A01 T00571034  RH  052%=      5-min Rain = 0
KCH1 130916Z 05005KT 06/M04 A3023 RMK A01 T00571035  RH  052%=      5-min Rain = 0
KCH1 130917Z 05005KT 06/M04 A3023 RMK A01 T00571035  RH  052%=      5-min Rain = 0
KCH1 130918Z 05005KT 06/M04 A3023 RMK A01 T00571035  RH  052%=      5-min Rain = 0
KCH1 130919Z 05005KT 06/M03 A3023 RMK A01 T00571034  RH  052%=      5-min Rain = 0
KCH1 130920Z 06005KT 06/M04 A3023 RMK A01 T00561035  RH  052%=      5-min Rain = 0
KCH1 130921Z 06005KT 06/M03 A3023 RMK A01 T00561034  RH  052%=      5-min Rain = 0
KCH1 130922Z 06004KT 06/M03 A3023 RMK A01 T00561034  RH  052%=      5-min Rain = 0
KCH1 130923Z 06005KT 06/M03 A3023 RMK A01 T00551034  RH  053%=      5-min Rain = 0
KCH1 130924Z 06005KT 06/M03 A3023 RMK A01 T00551034  RH  053%=      5-min Rain = 0
KCH1 130925Z 06005KT 05/M03 A3023 RMK A01 T00541034  RH  053%=      5-min Rain = 0
KCH1 130926Z 06005KT 05/M03 A3023 RMK A01 T00541034  RH  053%=      5-min Rain = 0
KCH1 130927Z 06005KT 05/M03 A3023 RMK A01 T00541034  RH  053%=      5-min Rain = 0
KCH1 130928Z 06005KT 05/M04 A3023 RMK A01 T00531035  RH  053%=      5-min Rain = 0
KCH1 130929Z 06004KT 05/M04 A3023 RMK A01 T00531035  RH  053%=      5-min Rain = 0
KCH1 130930Z 06005KT 05/M04 A3024 RMK A01 T00531035  RH  053%=      5-min Rain = 0
KCH1 130931Z 06005KT 05/M04 A3024 RMK A01 T00521035  RH  053%=      5-min Rain = 0
KCH1 130932Z 06005KT 05/M04 A3024 RMK A01 T00531036  RH  053%=      5-min Rain = 0
KCH1 130933Z 06005KT 05/M04 A3024 RMK A01 T00531035  RH  053%=      5-min Rain = 0
KCH1 130934Z 06005KT 05/M04 A3024 RMK A01 T00521035  RH  053%=      5-min Rain = 0
KCH1 130935Z 06005KT 05/M04 A3024 RMK A01 T00521036  RH  053%=      5-min Rain = 0
KCH1 130936Z 06005KT 05/M04 A3023 RMK A01 T00531035  RH  053%=      5-min Rain = 0
KCH1 130937Z 06005KT 05/M04 A3023 RMK A01 T00521036  RH  053%=      5-min Rain = 0
KCH1 130938Z 06005KT 05/M04 A3023 RMK A01 T00521036  RH  053%=      5-min Rain = 0
KCH1 130939Z 06005KT 05/M04 A3023 RMK A01 T00521036  RH  053%=      5-min Rain = 0
KCH1 130940Z 06005KT 05/M04 A3023 RMK A01 T00521035  RH  053%=      5-min Rain = 0
KCH1 130941Z 06004KT 05/M04 A3023 RMK A01 T00511035  RH  054%=      5-min Rain = 0
KCH1 130942Z 07004KT 05/M04 A3023 RMK A01 T00511035  RH  054%=      5-min Rain = 0
KCH1 130943Z 07004KT 05/M04 A3024 RMK A01 T00511035  RH  054%=      5-min Rain = 0
KCH1 130944Z 07004KT 05/M04 A3024 RMK A01 T00511035  RH  054%=      5-min Rain = 0
KCH1 130945Z 07004KT 05/M04 A3024 RMK A01 T00501035  RH  054%=      5-min Rain = 0
KCH1 130946Z 07004KT 05/M04 A3024 RMK A01 T00501036  RH  054%=      5-min Rain = 0
KCH1 130947Z 07004KT 05/M04 A3024 RMK A01 T00501035  RH  054%=      5-min Rain = 0
KCH1 130948Z 07004KT 05/M04 A3024 RMK A01 T00501035  RH  054%=      5-min Rain = 0
KCH1 130949Z 07004KT 05/M04 A3024 RMK A01 T00501035  RH  054%=      5-min Rain = 0
KCH1 130950Z 07004KT 05/M04 A3024 RMK A01 T00501035  RH  054%=      5-min Rain = 0
KCH1 130951Z 07004KT 05/M04 A3024 RMK A01 T00511035  RH  054%=      5-min Rain = 0
KCH1 130952Z 07004KT 05/M04 A3024 RMK A01 T00511035  RH  054%=      5-min Rain = 0
KCH1 130953Z 07004KT 05/M04 A3024 RMK A01 T00511036  RH  053%=      5-min Rain = 0
KCH1 130954Z 06004KT 05/M04 A3024 RMK A01 T00521035  RH  053%=      5-min Rain = 0
KCH1 130955Z 06004KT 05/M04 A3024 RMK A01 T00521035  RH  053%=      5-min Rain = 0
KCH1 130956Z 06005KT 05/M04 A3024 RMK A01 T00521035  RH  053%=      5-min Rain = 0
KCH1 130957Z 06005KT 05/M04 A3024 RMK A01 T00521035  RH  053%=      5-min Rain = 0
KCH1 130958Z 06005KT 05/M04 A3024 RMK A01 T00511036  RH  053%=      5-min Rain = 0
KCH1 130959Z 06005KT 05/M04 A3024 RMK A01 T00511036  RH  054%=      5-min Rain = 0
KCH1 131000Z 06005KT 05/M04 A3024 RMK A01 T00511036  RH  054%=      5-min Rain = 0
KCH1 131001Z 07005KT 05/M04 A3024 RMK A01 T00501036  RH  054%=      5-min Rain = 0
KCH1 131002Z 06005KT 05/M04 A3024 RMK A01 T00501036  RH  054%=      5-min Rain = 0
KCH1 131003Z 06005KT 05/M04 A3024 RMK A01 T00501035  RH  054%=      5-min Rain = 0
KCH1 131004Z 06005KT 05/M04 A3024 RMK A01 T00501036  RH  054%=      5-min Rain = 0
KCH1 131005Z 06005KT 05/M04 A3024 RMK A01 T00501035  RH  054%=      5-min Rain = 0
KCH1 131006Z 06005KT 05/M04 A3024 RMK A01 T00501035  RH  054%=      5-min Rain = 0
KCH1 131007Z 06005KT 05/M04 A3024 RMK A01 T00501035  RH  054%=      5-min Rain = 0
KCH1 131008Z 06005KT 05/M04 A3024 RMK A01 T00491035  RH  054%=      5-min Rain = 0
KCH1 131009Z 06005KT 05/M04 A3024 RMK A01 T00491035  RH  054%=      5-min Rain = 0
KCH1 131010Z 06005KT 05/M04 A3024 RMK A01 T00491035  RH  054%=      5-min Rain = 0
KCH1 131011Z 06005KT 05/M04 A3024 RMK A01 T00491035  RH  055%=      5-min Rain = 0
KCH1 131012Z 06005KT 05/M04 A3024 RMK A01 T00481035  RH  055%=      5-min Rain = 0
KCH1 131013Z 06005KT 05/M04 A3024 RMK A01 T00471035  RH  055%=      5-min Rain = 0
KCH1 131014Z 06005KT 05/M04 A3024 RMK A01 T00471035  RH  055%=      5-min Rain = 0
KCH1 131015Z 06005KT 05/M04 A3024 RMK A01 T00471035  RH  055%=      5-min Rain = 0
KCH1 131016Z 06005KT 05/M04 A3024 RMK A01 T00471035  RH  056%=      5-min Rain = 0
KCH1 131017Z 06005KT 05/M04 A3025 RMK A01 T00471035  RH  056%=      5-min Rain = 0
KCH1 131018Z 06005KT 05/M04 A3025 RMK A01 T00471035  RH  056%=      5-min Rain = 0
KCH1 131019Z 06005KT 05/M04 A3025 RMK A01 T00471035  RH  056%=      5-min Rain = 0
KCH1 131020Z 06005KT 05/M03 A3025 RMK A01 T00471034  RH  055%=      5-min Rain = 0
KCH1 131021Z 06005KT 05/M04 A3025 RMK A01 T00471035  RH  055%=      5-min Rain = 0
KCH1 131022Z 06005KT 05/M04 A3025 RMK A01 T00481035  RH  055%=      5-min Rain = 0
KCH1 131023Z 06005KT 05/M04 A3024 RMK A01 T00481035  RH  055%=      5-min Rain = 0
KCH1 131024Z 06005KT 05/M04 A3024 RMK A01 T00471035  RH  055%=      5-min Rain = 0
KCH1 131025Z 06005KT 05/M04 A3024 RMK A01 T00481035  RH  055%=      5-min Rain = 0
KCH1 131026Z 06005KT 05/M04 A3024 RMK A01 T00481035  RH  055%=      5-min Rain = 0
KCH1 131027Z 07005KT 05/M04 A3024 RMK A01 T00481035  RH  055%=      5-min Rain = 0
KCH1 131028Z 06005KT 05/M04 A3024 RMK A01 T00471035  RH  055%=      5-min Rain = 0
KCH1 131029Z 07005KT 05/M04 A3024 RMK A01 T00471035  RH  055%=      5-min Rain = 0
KCH1 131030Z 07005KT 05/M04 A3024 RMK A01 T00471035  RH  055%=      5-min Rain = 0
KCH1 131031Z 06005KT 05/M04 A3024 RMK A01 T00471035  RH  055%=      5-min Rain = 0
KCH1 131032Z 06005KT 05/M04 A3024 RMK A01 T00461035  RH  055%=      5-min Rain = 0
KCH1 131033Z 06005KT 05/M04 A3024 RMK A01 T00471035  RH  056%=      5-min Rain = 0
KCH1 131034Z 06005KT 05/M04 A3024 RMK A01 T00461035  RH  056%=      5-min Rain = 0
KCH1 131035Z 06005KT 05/M04 A3024 RMK A01 T00461035  RH  056%=      5-min Rain = 0
KCH1 131036Z 06005KT 05/M04 A3024 RMK A01 T00461035  RH  056%=      5-min Rain = 0
KCH1 131037Z 06005KT 05/M04 A3025 RMK A01 T00461035  RH  056%=      5-min Rain = 0
KCH1 131038Z 06005KT 05/M04 A3025 RMK A01 T00461035  RH  056%=      5-min Rain = 0
KCH1 131039Z 06005KT 05/M04 A3025 RMK A01 T00451035  RH  056%=      5-min Rain = 0
KCH1 131040Z 06005KT 05/M04 A3025 RMK A01 T00451035  RH  056%=      5-min Rain = 0
KCH1 131041Z 06005KT 05/M04 A3025 RMK A01 T00451035  RH  056%=      5-min Rain = 0
KCH1 131042Z 06005KT 04/M04 A3025 RMK A01 T00441035  RH  057%=      5-min Rain = 0
KCH1 131043Z 05006KT 04/M03 A3025 RMK A01 T00441034  RH  057%=      5-min Rain = 0
KCH1 131044Z 06005KT 04/M03 A3024 RMK A01 T00441034  RH  057%=      5-min Rain = 0
KCH1 131045Z 06005KT 04/M03 A3024 RMK A01 T00441034  RH  057%=      5-min Rain = 0
KCH1 131046Z 06005KT 04/M03 A3024 RMK A01 T00431034  RH  057%=      5-min Rain = 0
KCH1 131047Z 06005KT 04/M03 A3024 RMK A01 T00441034  RH  057%=      5-min Rain = 0
KCH1 131048Z 06005KT 04/M03 A3024 RMK A01 T00431034  RH  057%=      5-min Rain = 0
KCH1 131049Z 05005KT 04/M03 A3024 RMK A01 T00441034  RH  057%=      5-min Rain = 0
KCH1 131050Z 06006KT 04/M03 A3024 RMK A01 T00431034  RH  057%=      5-min Rain = 0
KCH1 131051Z 06005KT 04/M03 A3024 RMK A01 T00431034  RH  057%=      5-min Rain = 0
KCH1 131052Z 06005KT 04/M03 A3024 RMK A01 T00431034  RH  057%=      5-min Rain = 0
KCH1 131053Z 06005KT 04/M03 A3024 RMK A01 T00431034  RH  057%=      5-min Rain = 0
KCH1 131054Z 06005KT 04/M03 A3024 RMK A01 T00421034  RH  058%=      5-min Rain = 0
KCH1 131055Z 06005KT 04/M03 A3024 RMK A01 T00421034  RH  057%=      5-min Rain = 0
KCH1 131056Z 06005KT 04/M03 A3024 RMK A01 T00431034  RH  057%=      5-min Rain = 0
KCH1 131057Z 06005KT 04/M03 A3024 RMK A01 T00431034  RH  057%=      5-min Rain = 0
KCH1 131058Z 06005KT 04/M03 A3024 RMK A01 T00431034  RH  057%=      5-min Rain = 0
KCH1 131059Z 05005KT 04/M03 A3024 RMK A01 T00431034  RH  057%=      5-min Rain = 0
KCH1 131100Z 05005KT 04/M03 A3024 RMK A01 T00431034  RH  057%=      5-min Rain = 0
KCH1 131101Z 06005KT 04/M03 A3024 RMK A01 T00431034  RH  057%=      5-min Rain = 0
KCH1 131102Z 05005KT 04/M03 A3024 RMK A01 T00431034  RH  057%=      5-min Rain = 0
KCH1 131103Z 06005KT 04/M03 A3024 RMK A01 T00431034  RH  057%=      5-min Rain = 0
KCH1 131104Z 06005KT 04/M03 A3025 RMK A01 T00431034  RH  058%=      5-min Rain = 0
KCH1 131105Z 05005KT 04/M03 A3025 RMK A01 T00421034  RH  058%=      5-min Rain = 0
KCH1 131106Z 05005KT 04/M03 A3025 RMK A01 T00421034  RH  058%=      5-min Rain = 0
KCH1 131107Z 05005KT 04/M03 A3025 RMK A01 T00421034  RH  058%=      5-min Rain = 0
KCH1 131108Z 06005KT 04/M03 A3025 RMK A01 T00411034  RH  058%=      5-min Rain = 0
KCH1 131109Z 05005KT 04/M03 A3025 RMK A01 T00411034  RH  058%=      5-min Rain = 0
KCH1 131110Z 06005KT 04/M03 A3025 RMK A01 T00421034  RH  058%=      5-min Rain = 0
KCH1 131111Z 06005KT 04/M03 A3025 RMK A01 T00421034  RH  058%=      5-min Rain = 0
KCH1 131112Z 06005KT 04/M03 A3025 RMK A01 T00421034  RH  058%=      5-min Rain = 0
KCH1 131113Z 06005KT 04/M03 A3025 RMK A01 T00421034  RH  058%=      5-min Rain = 0
KCH1 131114Z 06005KT 04/M03 A3025 RMK A01 T00421034  RH  058%=      5-min Rain = 0
KCH1 131115Z 06005KT 04/M03 A3025 RMK A01 T00421034  RH  058%=      5-min Rain = 0
KCH1 131116Z 06005KT 04/M03 A3025 RMK A01 T00421034  RH  058%=      5-min Rain = 0
KCH1 131117Z 05005KT 04/M03 A3025 RMK A01 T00421034  RH  058%=      5-min Rain = 0
KCH1 131118Z 05005KT 04/M03 A3025 RMK A01 T00411034  RH  058%=      5-min Rain = 0
KCH1 131119Z 05005KT 04/M03 A3025 RMK A01 T00411034  RH  058%=      5-min Rain = 0
KCH1 131120Z 05006KT 04/M03 A3025 RMK A01 T00411034  RH  058%=      5-min Rain = 0
KCH1 131121Z 06005KT 04/M03 A3025 RMK A01 T00411034  RH  058%=      5-min Rain = 0
KCH1 131122Z 06005KT 04/M03 A3025 RMK A01 T00411034  RH  058%=      5-min Rain = 0
KCH1 131123Z 06005KT 04/M03 A3025 RMK A01 T00411034  RH  058%=      5-min Rain = 0
KCH1 131124Z 06005KT 04/M03 A3025 RMK A01 T00411034  RH  058%=      5-min Rain = 0
KCH1 131125Z 06005KT 04/M03 A3025 RMK A01 T00421034  RH  058%=      5-min Rain = 0
KCH1 131126Z 06005KT 04/M03 A3025 RMK A01 T00421034  RH  058%=      5-min Rain = 0
KCH1 131127Z 06005KT 04/M03 A3025 RMK A01 T00421034  RH  058%=      5-min Rain = 0
KCH1 131128Z 06005KT 04/M03 A3025 RMK A01 T00421034  RH  058%=      5-min Rain = 0
KCH1 131129Z 06005KT 04/M03 A3025 RMK A01 T00421034  RH  058%=      5-min Rain = 0
KCH1 131130Z 06005KT 04/M03 A3025 RMK A01 T00421034  RH  058%=      5-min Rain = 0
KCH1 131131Z 06005KT 04/M03 A3025 RMK A01 T00421034  RH  058%=      5-min Rain = 0
KCH1 131132Z 06005KT 04/M03 A3025 RMK A01 T00411034  RH  058%=      5-min Rain = 0
KCH1 131133Z 06005KT 04/M03 A3025 RMK A01 T00421034  RH  058%=      5-min Rain = 0
KCH1 131134Z 06005KT 04/M03 A3025 RMK A01 T00421034  RH  058%=      5-min Rain = 0
KCH1 131135Z 06005KT 04/M03 A3025 RMK A01 T00421034  RH  058%=      5-min Rain = 0
KCH1 131136Z 06005KT 04/M03 A3025 RMK A01 T00421034  RH  058%=      5-min Rain = 0
KCH1 131137Z 06004KT 04/M03 A3025 RMK A01 T00421034  RH  058%=      5-min Rain = 0
KCH1 131138Z 06004KT 04/M03 A3025 RMK A01 T00421034  RH  058%=      5-min Rain = 0
KCH1 131139Z 06005KT 04/M03 A3025 RMK A01 T00421034  RH  058%=      5-min Rain = 0
KCH1 131140Z 06004KT 04/M03 A3025 RMK A01 T00411034  RH  058%=      5-min Rain = 0
KCH1 131141Z 06004KT 04/M03 A3026 RMK A01 T00411034  RH  058%=      5-min Rain = 0
KCH1 131142Z 06004KT 04/M03 A3026 RMK A01 T00411034  RH  058%=      5-min Rain = 0
KCH1 131143Z 06004KT 04/M04 A3026 RMK A01 T00421035  RH  058%=      5-min Rain = 0
KCH1 131144Z 06004KT 04/M04 A3026 RMK A01 T00421035  RH  057%=      5-min Rain = 0
KCH1 131145Z 07003KT 04/M04 A3026 RMK A01 T00421035  RH  057%=      5-min Rain = 0
KCH1 131146Z 07003KT 04/M03 A3026 RMK A01 T00421034  RH  058%=      5-min Rain = 0
KCH1 131147Z 07003KT 04/M03 A3026 RMK A01 T00421034  RH  058%=      5-min Rain = 0
KCH1 131148Z 06003KT 04/M03 A3026 RMK A01 T00421034  RH  058%=      5-min Rain = 0
KCH1 131149Z 07003KT 04/M03 A3026 RMK A01 T00421034  RH  058%=      5-min Rain = 0
KCH1 131150Z 07003KT 04/M03 A3026 RMK A01 T00411034  RH  058%=      5-min Rain = 0
KCH1 131151Z 06003KT 04/M04 A3026 RMK A01 T00411035  RH  058%=      5-min Rain = 0
KCH1 131152Z 06003KT 04/M03 A3026 RMK A01 T00411034  RH  058%=      5-min Rain = 0
KCH1 131153Z 06003KT 04/M03 A3026 RMK A01 T00411034  RH  058%=      5-min Rain = 0
KCH1 131154Z 06002KT 04/M04 A3026 RMK A01 T00401035  RH  058%=      5-min Rain = 0
KCH1 131155Z 06003KT 04/M03 A3026 RMK A01 T00401034  RH  058%=      5-min Rain = 0
KCH1 131156Z 06003KT 04/M03 A3026 RMK A01 T00411034  RH  058%=      5-min Rain = 0
KCH1 131157Z 06003KT 04/M03 A3026 RMK A01 T00411034  RH  058%=      5-min Rain = 0
KCH1 131158Z 06003KT 04/M03 A3026 RMK A01 T00421034  RH  058%=      5-min Rain = 0
KCH1 131159Z 07002KT 04/M03 A3026 RMK A01 T00421034  RH  058%=      5-min Rain = 0
KCH1 131200Z 07002KT 04/M03 A3026 RMK A01 T00421034  RH  058%=      5-min Rain = 0
KCH1 131201Z 06003KT 04/M03 A3026 RMK A01 T00421034  RH  058%=      5-min Rain = 0
KCH1 131202Z 05004KT 04/M03 A3026 RMK A01 T00411034  RH  058%=      5-min Rain = 0
KCH1 131203Z 06004KT 04/M03 A3026 RMK A01 T00411034  RH  058%=      5-min Rain = 0
KCH1 131204Z 06003KT 04/M03 A3026 RMK A01 T00421034  RH  058%=      5-min Rain = 0
KCH1 131205Z 06002KT 04/M03 A3027 RMK A01 T00421034  RH  058%=      5-min Rain = 0
KCH1 131206Z 05003KT 04/M03 A3027 RMK A01 T00421034  RH  058%=      5-min Rain = 0
KCH1 131207Z 06003KT 04/M03 A3027 RMK A01 T00411034  RH  058%=      5-min Rain = 0
KCH1 131208Z 06002KT 04/M03 A3027 RMK A01 T00411034  RH  058%=      5-min Rain = 0
KCH1 131209Z 06003KT 04/M03 A3027 RMK A01 T00411034  RH  058%=      5-min Rain = 0
KCH1 131210Z 05003KT 04/M03 A3027 RMK A01 T00421033  RH  058%=      5-min Rain = 0
KCH1 131211Z 05002KT 04/M03 A3027 RMK A01 T00421033  RH  058%=      5-min Rain = 0
KCH1 131212Z 05002KT 04/M03 A3027 RMK A01 T00411034  RH  058%=      5-min Rain = 0
KCH1 131213Z 05003KT 04/M03 A3027 RMK A01 T00421033  RH  058%=      5-min Rain = 0
KCH1 131214Z 05003KT 04/M03 A3027 RMK A01 T00421033  RH  058%=      5-min Rain = 0
KCH1 131215Z 05003KT 04/M03 A3027 RMK A01 T00421033  RH  058%=      5-min Rain = 0
KCH1 131216Z 05002KT 04/M03 A3027 RMK A01 T00411033  RH  058%=      5-min Rain = 0
KCH1 131217Z 05003KT 04/M03 A3027 RMK A01 T00421033  RH  058%=      5-min Rain = 0
KCH1 131218Z 05003KT 04/M03 A3027 RMK A01 T00421032  RH  059%=      5-min Rain = 0
KCH1 131219Z 05004KT 04/M03 A3027 RMK A01 T00421032  RH  058%=      5-min Rain = 0
KCH1 131220Z 05004KT 04/M03 A3027 RMK A01 T00421032  RH  058%=      5-min Rain = 0
KCH1 131221Z 05004KT 04/M03 A3027 RMK A01 T00421033  RH  059%=      5-min Rain = 0
KCH1 131222Z 06003KT 04/M03 A3027 RMK A01 T00421032  RH  059%=      5-min Rain = 0
KCH1 131223Z 06003KT 04/M03 A3027 RMK A01 T00411032  RH  059%=      5-min Rain = 0
KCH1 131224Z 06004KT 04/M03 A3027 RMK A01 T00411033  RH  059%=      5-min Rain = 0
KCH1 131225Z 05003KT 04/M03 A3027 RMK A01 T00401033  RH  059%=      5-min Rain = 0
KCH1 131226Z 06003KT 04/M03 A3027 RMK A01 T00401032  RH  059%=      5-min Rain = 0
KCH1 131227Z 06003KT 04/M03 A3027 RMK A01 T00401033  RH  059%=      5-min Rain = 0
KCH1 131228Z 06003KT 04/M03 A3027 RMK A01 T00391033  RH  059%=      5-min Rain = 0
KCH1 131229Z 06004KT 04/M03 A3027 RMK A01 T00391032  RH  060%=      5-min Rain = 0
KCH1 131230Z 06004KT 04/M03 A3027 RMK A01 T00391032  RH  060%=      5-min Rain = 0
KCH1 131231Z 06004KT 04/M03 A3027 RMK A01 T00391032  RH  060%=      5-min Rain = 0
KCH1 131232Z 06004KT 04/M03 A3027 RMK A01 T00391032  RH  060%=      5-min Rain = 0
KCH1 131233Z 06004KT 04/M03 A3027 RMK A01 T00391032  RH  060%=      5-min Rain = 0
KCH1 131234Z 06004KT 04/M03 A3027 RMK A01 T00391033  RH  060%=      5-min Rain = 0
KCH1 131235Z 06004KT 04/M03 A3027 RMK A01 T00391032  RH  060%=      5-min Rain = 0
KCH1 131236Z 06003KT 04/M03 A3027 RMK A01 T00391032  RH  060%=      5-min Rain = 0
KCH1 131237Z 06003KT 04/M03 A3027 RMK A01 T00391032  RH  060%=      5-min Rain = 0
KCH1 131238Z 06003KT 04/M03 A3027 RMK A01 T00391033  RH  059%=      5-min Rain = 0
KCH1 131239Z 06003KT 04/M03 A3027 RMK A01 T00391032  RH  060%=      5-min Rain = 0
KCH1 131240Z 06003KT 04/M03 A3027 RMK A01 T00391032  RH  060%=      5-min Rain = 0
KCH1 131241Z 05003KT 04/M03 A3027 RMK A01 T00391032  RH  060%=      5-min Rain = 0
KCH1 131242Z 05003KT 04/M03 A3028 RMK A01 T00381032  RH  060%=      5-min Rain = 0
KCH1 131243Z 04003KT 04/M03 A3028 RMK A01 T00381032  RH  060%=      5-min Rain = 0
KCH1 131244Z 04003KT 04/M03 A3028 RMK A01 T00371032  RH  060%=      5-min Rain = 0
KCH1 131245Z 05003KT 04/M03 A3028 RMK A01 T00361032  RH  061%=      5-min Rain = 0
KCH1 131246Z 05004KT 04/M03 A3028 RMK A01 T00361032  RH  061%=      5-min Rain = 0
KCH1 131247Z 05004KT 04/M03 A3028 RMK A01 T00351032  RH  061%=      5-min Rain = 0
KCH1 131248Z 05004KT 04/M03 A3028 RMK A01 T00361031  RH  061%=      5-min Rain = 0
KCH1 131249Z 05004KT 04/M03 A3028 RMK A01 T00361032  RH  061%=      5-min Rain = 0
KCH1 131250Z 05004KT 04/M03 A3028 RMK A01 T00361032  RH  061%=      5-min Rain = 0
KCH1 131251Z 05004KT 04/M03 A3028 RMK A01 T00371031  RH  061%=      5-min Rain = 0
KCH1 131252Z 05004KT 04/M03 A3028 RMK A01 T00371031  RH  061%=      5-min Rain = 0
KCH1 131253Z 05004KT 04/M03 A3028 RMK A01 T00381031  RH  061%=      5-min Rain = 0
KCH1 131254Z 05004KT 04/M03 A3028 RMK A01 T00381031  RH  061%=      5-min Rain = 0
KCH1 131255Z 05004KT 04/M03 A3028 RMK A01 T00381032  RH  061%=      5-min Rain = 0
KCH1 131256Z 05004KT 04/M03 A3028 RMK A01 T00381031  RH  061%=      5-min Rain = 0
KCH1 131257Z 05003KT 04/M03 A3028 RMK A01 T00391031  RH  060%=      5-min Rain = 0
KCH1 131258Z 05003KT 04/M03 A3028 RMK A01 T00391031  RH  060%=      5-min Rain = 0
KCH1 131259Z 06003KT 04/M03 A3028 RMK A01 T00401031  RH  060%=      5-min Rain = 0
KCH1 131300Z 06003KT 04/M03 A3028 RMK A01 T00401031  RH  060%=      5-min Rain = 0
KCH1 131301Z 06003KT 04/M03 A3028 RMK A01 T00411030  RH  060%=      5-min Rain = 0
KCH1 131302Z 05003KT 04/M03 A3028 RMK A01 T00411031  RH  060%=      5-min Rain = 0
KCH1 131303Z 05002KT 04/M03 A3028 RMK A01 T00401031  RH  060%=      5-min Rain = 0
KCH1 131304Z 05002KT 04/M03 A3028 RMK A01 T00371032  RH  061%=      5-min Rain = 0
KCH1 131305Z 04001KT 03/M03 A3028 RMK A01 T00341033  RH  062%=      5-min Rain = 0
KCH1 131306Z 05002KT 03/M03 A3029 RMK A01 T00321032  RH  062%=      5-min Rain = 0
KCH1 131307Z 05001KT 03/M03 A3029 RMK A01 T00321032  RH  063%=      5-min Rain = 0
KCH1 131308Z 05001KT 03/M03 A3029 RMK A01 T00321031  RH  063%=      5-min Rain = 0
KCH1 131309Z 04002KT 03/M03 A3029 RMK A01 T00321031  RH  063%=      5-min Rain = 0
KCH1 131310Z 04001KT 03/M03 A3029 RMK A01 T00321031  RH  063%=      5-min Rain = 0
KCH1 131311Z 03002KT 03/M03 A3029 RMK A01 T00321031  RH  063%=      5-min Rain = 0
KCH1 131312Z 03002KT 03/M03 A3029 RMK A01 T00311032  RH  063%=      5-min Rain = 0
KCH1 131313Z 03002KT 03/M03 A3029 RMK A01 T00311031  RH  064%=      5-min Rain = 0
KCH1 131314Z 02002KT 03/M03 A3029 RMK A01 T00311031  RH  064%=      5-min Rain = 0
KCH1 131315Z 02003KT 03/M03 A3029 RMK A01 T00311030  RH  064%=      5-min Rain = 0
KCH1 131316Z 02003KT 03/M03 A3029 RMK A01 T00311030  RH  064%=      5-min Rain = 0
KCH1 131317Z 02003KT 03/M03 A3029 RMK A01 T00311031  RH  064%=      5-min Rain = 0
KCH1 131318Z 02003KT 03/M03 A3029 RMK A01 T00311031  RH  064%=      5-min Rain = 0
KCH1 131319Z 01002KT 03/M03 A3029 RMK A01 T00321030  RH  064%=      5-min Rain = 0
KCH1 131320Z 02002KT 03/M03 A3029 RMK A01 T00331029  RH  064%=      5-min Rain = 0
KCH1 131321Z 02003KT 03/M03 A3029 RMK A01 T00331029  RH  064%=      5-min Rain = 0
KCH1 131322Z 03002KT 03/M03 A3029 RMK A01 T00331029  RH  064%=      5-min Rain = 0
KCH1 131323Z 02001KT 03/M03 A3029 RMK A01 T00331029  RH  064%=      5-min Rain = 0
KCH1 131324Z 03001KT 03/M03 A3029 RMK A01 T00331029  RH  064%=      5-min Rain = 0
KCH1 131325Z 03001KT 03/M03 A3029 RMK A01 T00321030  RH  064%=      5-min Rain = 0
KCH1 131326Z 02001KT 03/M03 A3029 RMK A01 T00311029  RH  064%=      5-min Rain = 0
KCH1 131327Z 02001KT 03/M03 A3029 RMK A01 T00311030  RH  065%=      5-min Rain = 0
KCH1 131328Z 35001KT 03/M03 A3029 RMK A01 T00321029  RH  064%=      5-min Rain = 0
KCH1 131329Z 36001KT 03/M03 A3029 RMK A01 T00331029  RH  063%=      5-min Rain = 0
KCH1 131330Z 00002KT 03/M03 A303 RMK A01 T00341030  RH  063%=      5-min Rain = 0
KCH1 131331Z 01002KT 03/M03 A303 RMK A01 T00341029  RH  063%=      5-min Rain = 0
KCH1 131332Z 01002KT 04/M03 A303 RMK A01 T00361027  RH  064%=      5-min Rain = 0
KCH1 131333Z 01003KT 04/M03 A303 RMK A01 T00371026  RH  063%=      5-min Rain = 0
KCH1 131334Z 02003KT 04/M03 A303 RMK A01 T00381026  RH  063%=      5-min Rain = 0
KCH1 131335Z 01003KT 04/M03 A303 RMK A01 T00401025  RH  063%=      5-min Rain = 0
KCH1 131336Z 03002KT 04/M02 A303 RMK A01 T00421024  RH  062%=      5-min Rain = 0
KCH1 131337Z 03002KT 04/M02 A303 RMK A01 T00441022  RH  062%=      5-min Rain = 0
KCH1 131338Z 03002KT 05/M02 A303 RMK A01 T00471023  RH  061%=      5-min Rain = 0
KCH1 131339Z 02002KT 05/M02 A303 RMK A01 T00501023  RH  059%=      5-min Rain = 0
KCH1 131340Z 02002KT 05/M02 A303 RMK A01 T00521023  RH  059%=      5-min Rain = 0
KCH1 131341Z 04001KT 05/M02 A303 RMK A01 T00531023  RH  058%=      5-min Rain = 0
KCH1 131342Z 01000KT 06/M02 A303 RMK A01 T00551023  RH  057%=      5-min Rain = 0
KCH1 131343Z 03001KT 06/M02 A303 RMK A01 T00571023  RH  056%=      5-min Rain = 0
KCH1 131344Z 04001KT 06/M02 A303 RMK A01 T00581024  RH  056%=      5-min Rain = 0
KCH1 131345Z 01001KT 06/M02 A303 RMK A01 T00591024  RH  055%=      5-min Rain = 0
KCH1 131346Z 35001KT 06/M02 A303 RMK A01 T00601024  RH  055%=      5-min Rain = 0
KCH1 131347Z 02001KT 06/M02 A303 RMK A01 T00611021  RH  056%=      5-min Rain = 0
KCH1 131348Z 05000KT 06/M02 A3031 RMK A01 T00621021  RH  055%=      5-min Rain = 0
KCH1 131349Z 02001KT 06/M02 A3031 RMK A01 T00631021  RH  055%=      5-min Rain = 0
KCH1 131350Z 04001KT 07/M02 A3031 RMK A01 T00651021  RH  054%=      5-min Rain = 0
KCH1 131351Z 05000KT 07/M02 A3031 RMK A01 T00671021  RH  054%=      5-min Rain = 0
KCH1 131352Z 05002KT 07/M02 A3031 RMK A01 T00681021  RH  053%=      5-min Rain = 0
KCH1 131353Z 02002KT 07/M02 A3031 RMK A01 T00691021  RH  053%=      5-min Rain = 0
KCH1 131354Z 02002KT 07/M02 A3031 RMK A01 T00691022  RH  052%=      5-min Rain = 0
KCH1 131355Z 04001KT 07/M02 A3031 RMK A01 T00701020  RH  053%=      5-min Rain = 0
KCH1 131356Z 04001KT 07/M02 A3031 RMK A01 T00721018  RH  053%=      5-min Rain = 0
KCH1 131357Z 04003KT 07/M02 A3031 RMK A01 T00731019  RH  052%=      5-min Rain = 0
KCH1 131358Z 05002KT 07/M02 A3031 RMK A01 T00741018  RH  052%=      5-min Rain = 0
KCH1 131359Z 05002KT 07/M02 A3031 RMK A01 T00741018  RH  052%=      5-min Rain = 0
KCH1 131400Z 03002KT 07/M02 A3031 RMK A01 T00741020  RH  051%=      5-min Rain = 0
KCH1 131401Z 05002KT 07/M02 A3031 RMK A01 T00741019  RH  052%=      5-min Rain = 0
KCH1 131402Z 06002KT 07/M02 A3031 RMK A01 T00741018  RH  052%=      5-min Rain = 0
KCH1 131403Z 04002KT 08/M02 A3031 RMK A01 T00751017  RH  052%=      5-min Rain = 0
KCH1 131404Z 05003KT 08/M02 A3031 RMK A01 T00751018  RH  052%=      5-min Rain = 0
KCH1 131405Z 04003KT 08/M02 A3031 RMK A01 T00751017  RH  052%=      5-min Rain = 0
KCH1 131406Z 06003KT 08/M02 A3032 RMK A01 T00751017  RH  052%=      5-min Rain = 0
KCH1 131407Z 04002KT 08/M02 A3032 RMK A01 T00761016  RH  052%=      5-min Rain = 0
KCH1 131408Z 03001KT 08/M02 A3032 RMK A01 T00761015  RH  052%=      5-min Rain = 0
KCH1 131409Z 05001KT 08/M01 A3032 RMK A01 T00771014  RH  052%=      5-min Rain = 0
KCH1 131410Z 06001KT 08/M01 A3032 RMK A01 T00781014  RH  052%=      5-min Rain = 0
KCH1 131411Z 03001KT 08/M01 A3032 RMK A01 T00781014  RH  052%=      5-min Rain = 0
KCH1 131412Z 07001KT 08/M02 A3032 RMK A01 T00781015  RH  052%=      5-min Rain = 0
KCH1 131413Z 05001KT 08/M01 A3032 RMK A01 T00791013  RH  052%=      5-min Rain = 0
KCH1 131414Z 06001KT 08/M01 A3032 RMK A01 T00791014  RH  052%=      5-min Rain = 0
KCH1 131415Z 07001KT 08/M02 A3032 RMK A01 T00791015  RH  052%=      5-min Rain = 0
KCH1 131416Z 08002KT 08/M01 A3032 RMK A01 T00791014  RH  052%=      5-min Rain = 0
KCH1 131417Z 06002KT 08/M02 A3032 RMK A01 T00791015  RH  052%=      5-min Rain = 0
KCH1 131418Z 08003KT 08/M02 A3032 RMK A01 T00791015  RH  052%=      5-min Rain = 0
KCH1 131419Z 08003KT 08/M01 A3032 RMK A01 T00791014  RH  052%=      5-min Rain = 0
KCH1 131420Z 08003KT 08/M02 A3032 RMK A01 T00791015  RH  052%=      5-min Rain = 0
KCH1 131421Z 09003KT 08/M02 A3032 RMK A01 T00791015  RH  051%=      5-min Rain = 0
KCH1 131422Z 09004KT 08/M02 A3032 RMK A01 T00801015  RH  051%=      5-min Rain = 0
KCH1 131423Z 09003KT 08/M02 A3032 RMK A01 T00811015  RH  051%=      5-min Rain = 0
KCH1 131424Z 09004KT 08/M01 A3032 RMK A01 T00811014  RH  051%=      5-min Rain = 0
KCH1 131425Z 08004KT 08/M01 A3032 RMK A01 T00821014  RH  051%=      5-min Rain = 0
KCH1 131426Z 09003KT 08/M01 A3032 RMK A01 T00821014  RH  051%=      5-min Rain = 0
KCH1 131427Z 09003KT 08/M01 A3032 RMK A01 T00831014  RH  051%=      5-min Rain = 0
KCH1 131428Z 09003KT 08/M02 A3032 RMK A01 T00831015  RH  050%=      5-min Rain = 0
KCH1 131429Z 09003KT 08/M01 A3032 RMK A01 T00831014  RH  051%=      5-min Rain = 0
KCH1 131430Z 09002KT 08/M02 A3032 RMK A01 T00831015  RH  050%=      5-min Rain = 0
KCH1 131431Z 09002KT 08/M02 A3032 RMK A01 T00841015  RH  050%=      5-min Rain = 0
KCH1 131432Z 08003KT 08/M01 A3032 RMK A01 T00841013  RH  051%=      5-min Rain = 0
KCH1 131433Z 07003KT 09/M01 A3032 RMK A01 T00851011  RH  051%=      5-min Rain = 0
KCH1 131434Z 05004KT 09/M01 A3032 RMK A01 T00871010  RH  051%=      5-min Rain = 0
KCH1 131435Z 07004KT 09/M01 A3032 RMK A01 T00881009  RH  050%=      5-min Rain = 0
KCH1 131436Z 09003KT 09/M01 A3032 RMK A01 T00891009  RH  050%=      5-min Rain = 0
KCH1 131437Z 08004KT 09/M01 A3032 RMK A01 T00891010  RH  050%=      5-min Rain = 0
KCH1 131438Z 08004KT 09/M01 A3032 RMK A01 T00891009  RH  050%=      5-min Rain = 0
KCH1 131439Z 08004KT 09/M01 A3032 RMK A01 T00901012  RH  049%=      5-min Rain = 0
KCH1 131440Z 08003KT 09/M01 A3032 RMK A01 T00901009  RH  050%=      5-min Rain = 0
KCH1 131441Z 08003KT 09/M01 A3032 RMK A01 T00911008  RH  050%=      5-min Rain = 0
KCH1 131442Z 09003KT 09/M01 A3032 RMK A01 T00911010  RH  049%=      5-min Rain = 0
KCH1 131443Z 09003KT 09/M01 A3032 RMK A01 T00911011  RH  049%=      5-min Rain = 0
KCH1 131444Z 10004KT 09/M01 A3032 RMK A01 T00911011  RH  049%=      5-min Rain = 0
KCH1 131445Z 09004KT 09/M01 A3032 RMK A01 T00921010  RH  049%=      5-min Rain = 0
KCH1 131446Z 09004KT 09/M01 A3032 RMK A01 T00931009  RH  049%=      5-min Rain = 0
KCH1 131447Z 10005KT 09/M01 A3032 RMK A01 T00941008  RH  049%=      5-min Rain = 0
KCH1 131448Z 10006KT 10/M01 A3032 RMK A01 T00951008  RH  049%=      5-min Rain = 0
KCH1 131449Z 10005KT 10/M01 A3032 RMK A01 T00961007  RH  049%=      5-min Rain = 0
KCH1 131450Z 10005KT 10/M01 A3032 RMK A01 T00971006  RH  048%=      5-min Rain = 0
KCH1 131451Z 10005KT 10/M01 A3032 RMK A01 T00981006  RH  048%=      5-min Rain = 0
KCH1 131452Z 09004KT 10/M01 A3032 RMK A01 T01001005  RH  048%=      5-min Rain = 0
KCH1 131453Z 07004KT 10/M01 A3032 RMK A01 T01011005  RH  048%=      5-min Rain = 0
KCH1 131454Z 07003KT 10/M00 A3032 RMK A01 T01011004  RH  048%=      5-min Rain = 0
KCH1 131455Z 10005KT 10/M00 A3032 RMK A01 T01021004  RH  048%=      5-min Rain = 0
KCH1 131456Z 09005KT 10/M01 A3032 RMK A01 T01031005  RH  047%=      5-min Rain = 0
KCH1 131457Z 07005KT 10/M01 A3032 RMK A01 T01041005  RH  047%=      5-min Rain = 0
KCH1 131458Z 07005KT 10/M01 A3032 RMK A01 T01041006  RH  046%=      5-min Rain = 0
KCH1 131459Z 07006KT 11/M01 A3032 RMK A01 T01051006  RH  046%=      5-min Rain = 0
KCH1 131500Z 07006KT 11/M01 A3032 RMK A01 T01051007  RH  046%=      5-min Rain = 0
KCH1 131501Z 08005KT 11/M01 A3032 RMK A01 T01051008  RH  045%=      5-min Rain = 0
KCH1 131502Z 08006KT 10/M01 A3032 RMK A01 T01041009  RH  045%=      5-min Rain = 0
KCH1 131503Z 09007KT 10/M01 A3032 RMK A01 T01041010  RH  045%=      5-min Rain = 0
KCH1 131504Z 09006KT 11/M01 A3032 RMK A01 T01061010  RH  045%=      5-min Rain = 0
KCH1 131505Z 08006KT 11/M01 A3032 RMK A01 T01071010  RH  044%=      5-min Rain = 0
KCH1 131506Z 07006KT 11/M01 A3032 RMK A01 T01081009  RH  044%=      5-min Rain = 0
KCH1 131507Z 08006KT 11/M01 A3032 RMK A01 T01091009  RH  044%=      5-min Rain = 0
KCH1 131508Z 08009KT 11/M01 A3032 RMK A01 T01101009  RH  044%=      5-min Rain = 0
KCH1 131509Z 09007KT 11/M01 A3032 RMK A01 T01101011  RH  043%=      5-min Rain = 0
KCH1 131510Z 09005KT 11/M01 A3033 RMK A01 T01091011  RH  043%=      5-min Rain = 0
KCH1 131511Z 09006KT 11/M01 A3033 RMK A01 T01101009  RH  044%=      5-min Rain = 0
KCH1 131512Z 10007KT 11/M01 A3033 RMK A01 T01111011  RH  043%=      5-min Rain = 0
KCH1 131513Z 09005KT 11/M01 A3033 RMK A01 T01121010  RH  043%=      5-min Rain = 0
KCH1 131514Z 10007KT 11/M01 A3033 RMK A01 T01131011  RH  042%=      5-min Rain = 0
KCH1 131515Z 11005KT 11/M01 A3033 RMK A01 T01121011  RH  043%=      5-min Rain = 0
KCH1 131516Z 11006KT 11/M01 A3032 RMK A01 T01121009  RH  043%=      5-min Rain = 0
KCH1 131517Z 10007KT 11/M01 A3032 RMK A01 T01141010  RH  042%=      5-min Rain = 0
KCH1 131518Z 11008KT 12/M01 A3032 RMK A01 T01151010  RH  042%=      5-min Rain = 0
KCH1 131519Z 11007KT 12/M01 A3032 RMK A01 T01161012  RH  041%=      5-min Rain = 0
KCH1 131520Z 11006KT 12/M01 A3033 RMK A01 T01151012  RH  041%=      5-min Rain = 0
KCH1 131521Z 11007KT 11/M01 A3033 RMK A01 T01141010  RH  042%=      5-min Rain = 0
KCH1 131522Z 11007KT 12/M01 A3033 RMK A01 T01151010  RH  042%=      5-min Rain = 0
KCH1 131523Z 11007KT 12/M01 A3033 RMK A01 T01161010  RH  042%=      5-min Rain = 0
KCH1 131524Z 10005KT 12/M01 A3033 RMK A01 T01161012  RH  041%=      5-min Rain = 0
KCH1 131525Z 10006KT 12/M01 A3033 RMK A01 T01181009  RH  041%=      5-min Rain = 0
KCH1 131526Z 11007KT 12/M01 A3033 RMK A01 T01181012  RH  041%=      5-min Rain = 0
KCH1 131527Z 11007KT 12/M01 A3033 RMK A01 T01171012  RH  041%=      5-min Rain = 0
KCH1 131528Z 11006KT 12/M01 A3033 RMK A01 T01161011  RH  041%=      5-min Rain = 0
KCH1 131529Z 10005KT 12/M01 A3033 RMK A01 T01171010  RH  041%=      5-min Rain = 0
KCH1 131530Z 09006KT 12/M01 A3033 RMK A01 T01201007  RH  041%=      5-min Rain = 0
KCH1 131531Z 10007KT 12/M01 A3033 RMK A01 T01241007  RH  041%=      5-min Rain = 0
KCH1 131532Z 08006KT 13/M01 A3033 RMK A01 T01261009  RH  039%=      5-min Rain = 0
KCH1 131533Z 09006KT 13/M01 A3033 RMK A01 T01251011  RH  039%=      5-min Rain = 0
KCH1 131534Z 08006KT 12/M01 A3033 RMK A01 T01241010  RH  040%=      5-min Rain = 0
KCH1 131535Z 09004KT 13/M01 A3033 RMK A01 T01251010  RH  039%=      5-min Rain = 0
KCH1 131536Z 09006KT 13/M01 A3033 RMK A01 T01271009  RH  039%=      5-min Rain = 0
KCH1 131537Z 11005KT 13/M01 A3033 RMK A01 T01281007  RH  039%=      5-min Rain = 0
KCH1 131538Z 13005KT 13/M01 A3033 RMK A01 T01311006  RH  039%=      5-min Rain = 0
KCH1 131539Z 15004KT 13/M01 A3033 RMK A01 T01331007  RH  038%=      5-min Rain = 0
KCH1 131540Z 12004KT 14/M00 A3033 RMK A01 T01361004  RH  038%=      5-min Rain = 0
KCH1 131541Z 12006KT 14/M00 A3033 RMK A01 T01401002  RH  038%=      5-min Rain = 0
KCH1 131542Z 12007KT 14/M01 A3033 RMK A01 T01401008  RH  036%=      5-min Rain = 0
KCH1 131543Z 11004KT 14/M01 A3033 RMK A01 T01361010  RH  037%=      5-min Rain = 0
KCH1 131544Z 09006KT 13/M01 A3033 RMK A01 T01341009  RH  037%=      5-min Rain = 0
KCH1 131545Z 09005KT 14/M01 A3033 RMK A01 T01361008  RH  037%=      5-min Rain = 0
KCH1 131546Z 12005KT 14/M01 A3033 RMK A01 T01381008  RH  037%=      5-min Rain = 0
KCH1 131547Z 12006KT 14/M01 A3033 RMK A01 T01391005  RH  037%=      5-min Rain = 0
KCH1 131548Z 12008KT 14/M01 A3033 RMK A01 T01401008  RH  036%=      5-min Rain = 0
KCH1 131549Z 11007KT 14/M01 A3033 RMK A01 T01361012  RH  036%=      5-min Rain = 0
KCH1 131550Z 11005KT 13/M01 A3033 RMK A01 T01311012  RH  037%=      5-min Rain = 0
KCH1 131551Z 10004KT 13/M01 A3033 RMK A01 T01311010  RH  038%=      5-min Rain = 0
KCH1 131552Z 10005KT 13/M01 A3033 RMK A01 T01321008  RH  038%=      5-min Rain = 0
KCH1 131553Z 11006KT 13/M01 A3033 RMK A01 T01341010  RH  037%=      5-min Rain = 0
KCH1 131554Z 13008KT 13/M01 A3033 RMK A01 T01341008  RH  038%=      5-min Rain = 0
KCH1 131555Z 12007KT 13/M01 A3033 RMK A01 T01341011  RH  037%=      5-min Rain = 0
KCH1 131556Z 13006KT 13/M01 A3033 RMK A01 T01331011  RH  037%=      5-min Rain = 0
KCH1 131557Z 13006KT 13/M01 A3033 RMK A01 T01331011  RH  037%=      5-min Rain = 0
KCH1 131558Z 16005KT 13/M01 A3033 RMK A01 T01321011  RH  037%=      5-min Rain = 0
KCH1 131559Z 14004KT 13/M01 A3033 RMK A01 T01301013  RH  037%=      5-min Rain = 0
KCH1 131600Z 13007KT 13/M01 A3033 RMK A01 T01301010  RH  038%=      5-min Rain = 0
KCH1 131601Z 12006KT 13/M01 A3033 RMK A01 T01311011  RH  037%=      5-min Rain = 0
KCH1 131602Z 12005KT 13/M01 A3033 RMK A01 T01301013  RH  037%=      5-min Rain = 0
KCH1 131603Z 13004KT 13/M01 A3033 RMK A01 T01291013  RH  037%=      5-min Rain = 0
KCH1 131604Z 10003KT 13/M01 A3033 RMK A01 T01291012  RH  038%=      5-min Rain = 0
KCH1 131605Z 13003KT 13/M01 A3033 RMK A01 T01321009  RH  038%=      5-min Rain = 0
KCH1 131606Z 17006KT 14/M01 A3033 RMK A01 T01371005  RH  038%=      5-min Rain = 0
KCH1 131607Z 18005KT 14/M01 A3033 RMK A01 T01401009  RH  036%=      5-min Rain = 0
KCH1 131608Z 17004KT 14/M01 A3033 RMK A01 T01391009  RH  036%=      5-min Rain = 0
KCH1 131609Z 15005KT 14/M01 A3033 RMK A01 T01401007  RH  036%=      5-min Rain = 0
KCH1 131610Z 15003KT 14/M01 A3033 RMK A01 T01411011  RH  035%=      5-min Rain = 0
KCH1 131611Z 14002KT 14/M01 A3033 RMK A01 T01411010  RH  035%=      5-min Rain = 0
KCH1 131612Z 16005KT 14/M01 A3033 RMK A01 T01421008  RH  036%=      5-min Rain = 0
KCH1 131613Z 14006KT 14/M01 A3033 RMK A01 T01431010  RH  035%=      5-min Rain = 0
KCH1 131614Z 12006KT 14/M01 A3033 RMK A01 T01431009  RH  035%=      5-min Rain = 0
KCH1 131615Z 13006KT 14/M01 A3033 RMK A01 T01441010  RH  035%=      5-min Rain = 0
KCH1 131616Z 14008KT 14/M01 A3033 RMK A01 T01441008  RH  035%=      5-min Rain = 0
KCH1 131617Z 13007KT 15/M01 A3033 RMK A01 T01451010  RH  034%=      5-min Rain = 0
KCH1 131618Z 14006KT 14/M01 A3033 RMK A01 T01441010  RH  035%=      5-min Rain = 0
KCH1 131619Z 13006KT 15/M01 A3033 RMK A01 T01461006  RH  035%=      5-min Rain = 0
KCH1 131620Z 12008KT 15/M01 A3033 RMK A01 T01481010  RH  034%=      5-min Rain = 0
KCH1 131621Z 12005KT 15/M01 A3033 RMK A01 T01471012  RH  033%=      5-min Rain = 0
KCH1 131622Z 12004KT 15/M01 A3033 RMK A01 T01451010  RH  034%=      5-min Rain = 0
KCH1 131623Z 14007KT 15/M01 A3033 RMK A01 T01461006  RH  035%=      5-min Rain = 0
KCH1 131624Z 14006KT 15/M01 A3033 RMK A01 T01481010  RH  034%=      5-min Rain = 0
KCH1 131625Z 15005KT 15/M01 A3033 RMK A01 T01461010  RH  034%=      5-min Rain = 0
KCH1 131626Z 17005KT 15/M01 A3033 RMK A01 T01461009  RH  035%=      5-min Rain = 0
KCH1 131627Z 18006KT 15/M01 A3033 RMK A01 T01471007  RH  035%=      5-min Rain = 0
KCH1 131628Z 20006KT 15/M01 A3033 RMK A01 T01461010  RH  034%=      5-min Rain = 0
KCH1 131629Z 18008KT 14/M01 A3033 RMK A01 T01431011  RH  035%=      5-min Rain = 0
KCH1 131630Z 18006KT 14/M01 A3033 RMK A01 T01421009  RH  035%=      5-min Rain = 0
KCH1 131631Z 19006KT 14/M01 A3033 RMK A01 T01441010  RH  035%=      5-min Rain = 0
KCH1 131632Z 18006KT 14/M01 A3033 RMK A01 T01431011  RH  035%=      5-min Rain = 0
KCH1 131633Z 14005KT 14/M01 A3033 RMK A01 T01441009  RH  035%=      5-min Rain = 0
KCH1 131634Z 15005KT 15/M01 A3033 RMK A01 T01451009  RH  035%=      5-min Rain = 0
KCH1 131635Z 17008KT 15/M01 A3033 RMK A01 T01481007  RH  035%=      5-min Rain = 0
KCH1 131636Z 17008KT 15/M01 A3033 RMK A01 T01481010  RH  034%=      5-min Rain = 0
KCH1 131637Z 17007KT 15/M01 A3033 RMK A01 T01471009  RH  034%=      5-min Rain = 0
KCH1 131638Z 17006KT 15/M01 A3033 RMK A01 T01491006  RH  035%=      5-min Rain = 0
KCH1 131639Z 16008KT 15/M01 A3033 RMK A01 T01501010  RH  033%=      5-min Rain = 0
KCH1 131640Z 16009KT 15/M01 A3033 RMK A01 T01481010  RH  034%=      5-min Rain = 0
KCH1 131641Z 17007KT 15/M01 A3033 RMK A01 T01481010  RH  034%=      5-min Rain = 0
KCH1 131642Z 17006KT 15/M01 A3033 RMK A01 T01471013  RH  033%=      5-min Rain = 0
KCH1 131643Z 17005KT 15/M01 A3033 RMK A01 T01451013  RH  034%=      5-min Rain = 0
KCH1 131644Z 16003KT 15/M01 A3033 RMK A01 T01461010  RH  034%=      5-min Rain = 0
KCH1 131645Z 17004KT 15/M01 A3033 RMK A01 T01481007  RH  034%=      5-min Rain = 0
KCH1 131646Z 19006KT 15/M01 A3033 RMK A01 T01491011  RH  033%=      5-min Rain = 0
KCH1 131647Z 18007KT 15/M01 A3033 RMK A01 T01471011  RH  034%=      5-min Rain = 0
KCH1 131648Z 19005KT 15/M01 A3033 RMK A01 T01461009  RH  034%=      5-min Rain = 0
KCH1 131649Z 20006KT 15/M01 A3033 RMK A01 T01481010  RH  034%=      5-min Rain = 0
KCH1 131650Z 19004KT 15/M01 A3033 RMK A01 T01471012  RH  033%=      5-min Rain = 0
KCH1 131651Z 18005KT 15/M01 A3033 RMK A01 T01471007  RH  035%=      5-min Rain = 0
KCH1 131652Z 14006KT 15/M01 A3033 RMK A01 T01511007  RH  034%=      5-min Rain = 0
KCH1 131653Z 14004KT 15/M01 A3033 RMK A01 T01521012  RH  032%=      5-min Rain = 0
KCH1 131654Z 16005KT 15/M01 A3033 RMK A01 T01491012  RH  033%=      5-min Rain = 0
KCH1 131655Z 16006KT 15/M01 A3033 RMK A01 T01491011  RH  034%=      5-min Rain = 0
KCH1 131656Z 16003KT 15/M01 A3033 RMK A01 T01471013  RH  033%=      5-min Rain = 0
KCH1 131657Z 16007KT 15/M01 A3033 RMK A01 T01471011  RH  034%=      5-min Rain = 0
KCH1 131658Z 16008KT 15/M01 A3033 RMK A01 T01491012  RH  033%=      5-min Rain = 0
KCH1 131659Z 16005KT 15/M01 A3033 RMK A01 T01481012  RH  033%=      5-min Rain = 0
KCH1 131700Z 16004KT 15/M01 A3033 RMK A01 T01481014  RH  033%=      5-min Rain = 0
KCH1 131701Z 15005KT 15/M01 A3033 RMK A01 T01471010  RH  034%=      5-min Rain = 0
KCH1 131702Z 16006KT 15/M01 A3033 RMK A01 T01501010  RH  033%=      5-min Rain = 0
KCH1 131703Z 15005KT 15/M01 A3033 RMK A01 T01501012  RH  033%=      5-min Rain = 0
KCH1 131704Z 16006KT 15/M01 A3033 RMK A01 T01511011  RH  033%=      5-min Rain = 0
KCH1 131705Z 15006KT 15/M01 A3033 RMK A01 T01501011  RH  033%=      5-min Rain = 0
KCH1 131706Z 15005KT 15/M01 A3033 RMK A01 T01501012  RH  033%=      5-min Rain = 0
KCH1 131707Z 16003KT 15/M01 A3033 RMK A01 T01511013  RH  032%=      5-min Rain = 0
KCH1 131708Z 10003KT 15/M01 A3033 RMK A01 T01521013  RH  032%=      5-min Rain = 0
KCH1 131709Z 11004KT 15/M01 A3033 RMK A01 T01521011  RH  033%=      5-min Rain = 0
KCH1 131710Z 17003KT 15/M01 A3033 RMK A01 T01531010  RH  033%=      5-min Rain = 0
KCH1 131711Z 15005KT 16/M01 A3033 RMK A01 T01551008  RH  033%=      5-min Rain = 0
KCH1 131712Z 13003KT 16/M01 A3033 RMK A01 T01551009  RH  032%=      5-min Rain = 0
KCH1 131713Z 12007KT 16/M01 A3033 RMK A01 T01561006  RH  033%=      5-min Rain = 0
KCH1 131714Z 13007KT 16/M01 A3033 RMK A01 T01571010  RH  032%=      5-min Rain = 0
KCH1 131715Z 14006KT 15/M01 A3033 RMK A01 T01541012  RH  032%=      5-min Rain = 0
KCH1 131716Z 13005KT 16/M01 A3033 RMK A01 T01551009  RH  033%=      5-min Rain = 0
KCH1 131717Z 15005KT 16/M01 A3033 RMK A01 T01551011  RH  032%=      5-min Rain = 0
KCH1 131718Z 14004KT 15/M01 A3033 RMK A01 T01541011  RH  032%=      5-min Rain = 0
KCH1 131719Z 17001KT 15/M01 A3033 RMK A01 T01531012  RH  032%=      5-min Rain = 0
KCH1 131720Z 20004KT 15/M01 A3032 RMK A01 T01531010  RH  033%=      5-min Rain = 0
KCH1 131721Z 20002KT 15/M01 A3032 RMK A01 T01541012  RH  032%=      5-min Rain = 0
KCH1 131722Z 19003KT 15/M01 A3032 RMK A01 T01541009  RH  033%=      5-min Rain = 0
KCH1 131723Z 16003KT 16/M01 A3032 RMK A01 T01551012  RH  032%=      5-min Rain = 0
KCH1 131724Z 12003KT 16/M01 A3032 RMK A01 T01561010  RH  032%=      5-min Rain = 0
KCH1 131725Z 12004KT 16/M01 A3032 RMK A01 T01571011  RH  032%=      5-min Rain = 0
KCH1 131726Z 11007KT 16/M01 A3032 RMK A01 T01571013  RH  031%=      5-min Rain = 0
KCH1 131727Z 11008KT 16/M02 A3032 RMK A01 T01561015  RH  031%=      5-min Rain = 0
KCH1 131728Z 09005KT 16/M01 A3032 RMK A01 T01561013  RH  031%=      5-min Rain = 0
KCH1 131729Z 13005KT 16/M01 A3032 RMK A01 T01571013  RH  031%=      5-min Rain = 0
KCH1 131730Z 11003KT 16/M01 A3032 RMK A01 T01581014  RH  031%=      5-min Rain = 0
KCH1 131731Z 13002KT 16/M02 A3032 RMK A01 T01571016  RH  030%=      5-min Rain = 0
KCH1 131732Z 17005KT 16/M01 A3032 RMK A01 T01571011  RH  032%=      5-min Rain = 0
KCH1 131733Z 15005KT 16/M01 A3032 RMK A01 T01591011  RH  031%=      5-min Rain = 0
KCH1 131734Z 14005KT 16/M01 A3032 RMK A01 T01601008  RH  032%=      5-min Rain = 0
KCH1 131735Z 09006KT 16/M01 A3032 RMK A01 T01621010  RH  031%=      5-min Rain = 0
KCH1 131736Z 10005KT 16/M01 A3032 RMK A01 T01631011  RH  030%=      5-min Rain = 0
KCH1 131737Z 12004KT 16/M01 A3032 RMK A01 T01631014  RH  030%=      5-min Rain = 0
KCH1 131738Z 10004KT 16/M01 A3031 RMK A01 T01621012  RH  030%=      5-min Rain = 0
KCH1 131739Z 09003KT 16/M01 A3031 RMK A01 T01631013  RH  030%=      5-min Rain = 0
KCH1 131740Z 14006KT 16/M01 A3031 RMK A01 T01641009  RH  031%=      5-min Rain = 0
KCH1 131741Z 12007KT 17/M01 A3031 RMK A01 T01661012  RH  030%=      5-min Rain = 0
KCH1 131742Z 10007KT 17/M01 A3031 RMK A01 T01671010  RH  030%=      5-min Rain = 0
KCH1 131743Z 09006KT 17/M01 A3031 RMK A01 T01661014  RH  029%=      5-min Rain = 0
KCH1 131744Z 11004KT 16/M02 A3031 RMK A01 T01631015  RH  030%=      5-min Rain = 0
KCH1 131745Z 13005KT 16/M01 A3031 RMK A01 T01621014  RH  030%=      5-min Rain = 0
KCH1 131746Z 12007KT 16/M01 A3031 RMK A01 T01621012  RH  030%=      5-min Rain = 0
KCH1 131747Z 10007KT 16/M01 A3031 RMK A01 T01621013  RH  030%=      5-min Rain = 0
KCH1 131748Z 12006KT 16/M01 A3031 RMK A01 T01621011  RH  030%=      5-min Rain = 0
KCH1 131749Z 13004KT 16/M01 A3031 RMK A01 T01631014  RH  030%=      5-min Rain = 0
KCH1 131750Z 12003KT 16/M01 A3031 RMK A01 T01621013  RH  030%=      5-min Rain = 0
KCH1 131751Z 06002KT 16/M02 A3031 RMK A01 T01591016  RH  030%=      5-min Rain = 0
KCH1 131752Z 07004KT 16/M01 A3031 RMK A01 T01581014  RH  031%=      5-min Rain = 0
KCH1 131753Z 09005KT 16/M01 A3031 RMK A01 T01611009  RH  031%=      5-min Rain = 0
KCH1 131754Z 13009KT 17/M01 A3031 RMK A01 T01651010  RH  030%=      5-min Rain = 0
KCH1 131755Z 13009KT 17/M01 A3031 RMK A01 T01661007  RH  031%=      5-min Rain = 0
KCH1 131756Z 13008KT 17/M01 A3031 RMK A01 T01671008  RH  030%=      5-min Rain = 0
KCH1 131757Z 11005KT 17/M01 A3031 RMK A01 T01681010  RH  030%=      5-min Rain = 0
KCH1 131758Z 18001KT 17/M01 A3031 RMK A01 T01651014  RH  029%=      5-min Rain = 0
KCH1 131759Z 14002KT 16/M01 A303 RMK A01 T01641013  RH  030%=      5-min Rain = 0
KCH1 131800Z 11003KT 16/M02 A3031 RMK A01 T01621015  RH  030%=      5-min Rain = 0
KCH1 131801Z 10003KT 16/M01 A303 RMK A01 T01631010  RH  031%=      5-min Rain = 0
KCH1 131802Z 14003KT 17/M01 A303 RMK A01 T01651009  RH  030%=      5-min Rain = 0
KCH1 131803Z 11006KT 17/M01 A303 RMK A01 T01671010  RH  030%=      5-min Rain = 0
KCH1 131804Z 11008KT 17/M01 A303 RMK A01 T01701012  RH  029%=      5-min Rain = 0
KCH1 131805Z 08007KT 17/M02 A303 RMK A01 T01711016  RH  028%=      5-min Rain = 0
KCH1 131806Z 09009KT 17/M02 A303 RMK A01 T01701016  RH  028%=      5-min Rain = 0
KCH1 131807Z 09010KT 17/M02 A303 RMK A01 T01721019  RH  027%=      5-min Rain = 0
KCH1 131808Z 12011KT 17/M02 A303 RMK A01 T01741015  RH  028%=      5-min Rain = 0
KCH1 131809Z 11009KT 18/M02 A303 RMK A01 T01751019  RH  027%=      5-min Rain = 0
KCH1 131810Z 10007G12KT 17/M02 A303 RMK A01 T01701019  RH  028%=      5-min Rain = 0
KCH1 131811Z 09009KT 17/M02 A303 RMK A01 T01721016  RH  028%=      5-min Rain = 0
KCH1 131812Z 11007KT 17/M02 A303 RMK A01 T01731017  RH  027%=      5-min Rain = 0
KCH1 131813Z 14004KT 17/M02 A303 RMK A01 T01711020  RH  027%=      5-min Rain = 0
KCH1 131814Z 15004KT 17/M02 A303 RMK A01 T01681019  RH  028%=      5-min Rain = 0
KCH1 131815Z 08009G15KT 17/M02 A303 RMK A01 T01671017  RH  028%=      5-min Rain = 0
KCH1 131816Z 08012KT 17/M02 A303 RMK A01 T01701016  RH  028%=      5-min Rain = 0
KCH1 131817Z 09011KT 17/M02 A303 RMK A01 T01721017  RH  028%=      5-min Rain = 0
KCH1 131818Z 07009KT 17/M02 A303 RMK A01 T01731017  RH  027%=      5-min Rain = 0
KCH1 131819Z 08012KT 17/M02 A303 RMK A01 T01721015  RH  028%=      5-min Rain = 0
KCH1 131820Z 08010KT 17/M02 A303 RMK A01 T01711018  RH  028%=      5-min Rain = 0
KCH1 131821Z 07009KT 17/M02 A303 RMK A01 T01691016  RH  028%=      5-min Rain = 0
KCH1 131822Z 07005KT 17/M02 A303 RMK A01 T01681016  RH  028%=      5-min Rain = 0
KCH1 131823Z 08004KT 17/M01 A303 RMK A01 T01691013  RH  029%=      5-min Rain = 0
KCH1 131824Z 12003KT 17/M01 A303 RMK A01 T01731012  RH  029%=      5-min Rain = 0
KCH1 131825Z 10004KT 17/M02 A303 RMK A01 T01741016  RH  027%=      5-min Rain = 0
KCH1 131826Z 08006KT 17/M01 A303 RMK A01 T01731014  RH  028%=      5-min Rain = 0
KCH1 131827Z 09005KT 18/M01 A303 RMK A01 T01771009  RH  028%=      5-min Rain = 0
KCH1 131828Z 07004KT 18/M01 A303 RMK A01 T01801011  RH  027%=      5-min Rain = 0
KCH1 131829Z 12002KT 18/M02 A303 RMK A01 T01801015  RH  027%=      5-min Rain = 0
KCH1 131830Z 09003KT 18/M02 A3029 RMK A01 T01771019  RH  026%=      5-min Rain = 0
KCH1 131831Z 11010KT 18/M02 A3029 RMK A01 T01761015  RH  027%=      5-min Rain = 0
KCH1 131832Z 09012KT 18/M02 A3029 RMK A01 T01761015  RH  027%=      5-min Rain = 0
KCH1 131833Z 08012KT 18/M02 A3029 RMK A01 T01781017  RH  026%=      5-min Rain = 0
KCH1 131834Z 10008KT 18/M02 A3029 RMK A01 T01761020  RH  026%=      5-min Rain = 0
KCH1 131835Z 09009KT 17/M02 A3029 RMK A01 T01741020  RH  027%=      5-min Rain = 0
KCH1 131836Z 09011KT 18/M02 A3029 RMK A01 T01761020  RH  026%=      5-min Rain = 0
KCH1 131837Z 07007KT 18/M02 A3029 RMK A01 T01761023  RH  026%=      5-min Rain = 0
KCH1 131838Z 07005KT 17/M02 A3029 RMK A01 T01731023  RH  026%=      5-min Rain = 0
KCH1 131839Z 09010KT 17/M02 A3029 RMK A01 T01721022  RH  026%=      5-min Rain = 0
KCH1 131840Z 09009KT 17/M03 A3029 RMK A01 T01721026  RH  026%=      5-min Rain = 0
KCH1 131841Z 10012KT 17/M02 A3029 RMK A01 T01711024  RH  026%=      5-min Rain = 0
KCH1 131842Z 10012KT 17/M03 A3029 RMK A01 T01731026  RH  026%=      5-min Rain = 0
KCH1 131843Z 10011KT 17/M03 A3029 RMK A01 T01731026  RH  025%=      5-min Rain = 0
KCH1 131844Z 10009KT 17/M02 A3029 RMK A01 T01741023  RH  026%=      5-min Rain = 0
KCH1 131845Z 11007KT 17/M02 A3029 RMK A01 T01731020  RH  027%=      5-min Rain = 0
KCH1 131846Z 12010KT 17/M02 A3029 RMK A01 T01721019  RH  027%=      5-min Rain = 0
KCH1 131847Z 08012KT 17/M02 A3029 RMK A01 T01721021  RH  027%=      5-min Rain = 0
KCH1 131848Z 09012G17KT 18/M02 A3029 RMK A01 T01751018  RH  027%=      5-min Rain = 0
KCH1 131849Z 09012KT 18/M02 A3029 RMK A01 T01781021  RH  026%=      5-min Rain = 0
KCH1 131850Z 10010KT 18/M02 A3029 RMK A01 T01771022  RH  026%=      5-min Rain = 0
KCH1 131851Z 11008KT 18/M02 A3029 RMK A01 T01771022  RH  026%=      5-min Rain = 0
KCH1 131852Z 09009KT 18/M02 A3028 RMK A01 T01761021  RH  026%=      5-min Rain = 0
KCH1 131853Z 09009KT 18/M02 A3028 RMK A01 T01781021  RH  026%=      5-min Rain = 0
KCH1 131854Z 08008KT 18/M03 A3028 RMK A01 T01751025  RH  025%=      5-min Rain = 0
KCH1 131855Z 08009KT 17/M02 A3028 RMK A01 T01741024  RH  026%=      5-min Rain = 0
KCH1 131856Z 09007KT 17/M02 A3028 RMK A01 T01741023  RH  026%=      5-min Rain = 0
KCH1 131857Z 07007KT 17/M03 A3028 RMK A01 T01741025  RH  026%=      5-min Rain = 0
KCH1 131858Z 06005KT 17/M02 A3028 RMK A01 T01741019  RH  027%=      5-min Rain = 0
KCH1 131859Z 04007KT 18/M01 A3028 RMK A01 T01801013  RH  027%=      5-min Rain = 0
KCH1 131900Z 05007KT 18/M02 A3028 RMK A01 T01841015  RH  026%=      5-min Rain = 0
KCH1 131901Z 08012KT 18/M02 A3028 RMK A01 T01831017  RH  026%=      5-min Rain = 0
KCH1 131902Z 06011KT 18/M02 A3028 RMK A01 T01811016  RH  026%=      5-min Rain = 0
KCH1 131903Z 06015KT 18/M02 A3028 RMK A01 T01801015  RH  027%=      5-min Rain = 0
KCH1 131904Z 07013KT 18/M02 A3028 RMK A01 T01801016  RH  026%=      5-min Rain = 0
KCH1 131905Z 07011KT 18/M02 A3028 RMK A01 T01781016  RH  027%=      5-min Rain = 0
KCH1 131906Z 06007KT 18/M02 A3028 RMK A01 T01771018  RH  027%=      5-min Rain = 0
KCH1 131907Z 06003KT 17/M02 A3028 RMK A01 T01721020  RH  027%=      5-min Rain = 0
KCH1 131908Z 08007KT 17/M02 A3028 RMK A01 T01711017  RH  028%=      5-min Rain = 0
KCH1 131909Z 06005KT 17/M02 A3028 RMK A01 T01731019  RH  027%=      5-min Rain = 0
KCH1 131910Z 10003KT 18/M02 A3028 RMK A01 T01751017  RH  027%=      5-min Rain = 0
KCH1 131911Z 12006KT 18/M01 A3028 RMK A01 T01781014  RH  027%=      5-min Rain = 0
KCH1 131912Z 12004KT 18/M02 A3028 RMK A01 T01811019  RH  026%=      5-min Rain = 0
KCH1 131913Z 12006G12KT 18/M02 A3028 RMK A01 T01811015  RH  026%=      5-min Rain = 0
KCH1 131914Z 12010KT 19/M01 A3028 RMK A01 T01851014  RH  026%=      5-min Rain = 0
KCH1 131915Z 13009KT 19/M02 A3028 RMK A01 T01851019  RH  025%=      5-min Rain = 0
KCH1 131916Z 12010KT 18/M02 A3027 RMK A01 T01831022  RH  025%=      5-min Rain = 0
KCH1 131917Z 12008KT 18/M02 A3027 RMK A01 T01811018  RH  026%=      5-min Rain = 0
KCH1 131918Z 11010KT 18/M01 A3027 RMK A01 T01841014  RH  026%=      5-min Rain = 0
KCH1 131919Z 10009KT 18/M02 A3027 RMK A01 T01841021  RH  025%=      5-min Rain = 0
KCH1 131920Z 11012KT 18/M02 A3027 RMK A01 T01821020  RH  025%=      5-min Rain = 0
KCH1 131921Z 09014G23KT 18/M02 A3027 RMK A01 T01831019  RH  025%=      5-min Rain = 0
KCH1 131922Z 10012KT 18/M02 A3027 RMK A01 T01831020  RH  025%=      5-min Rain = 0
KCH1 131923Z 12010KT 18/M02 A3027 RMK A01 T01821017  RH  026%=      5-min Rain = 0
KCH1 131924Z 12010KT 19/M01 A3027 RMK A01 T01851013  RH  026%=      5-min Rain = 0
KCH1 131925Z 11010KT 19/M02 A3027 RMK A01 T01871016  RH  025%=      5-min Rain = 0
KCH1 131926Z 10009KT 19/M02 A3027 RMK A01 T01861017  RH  025%=      5-min Rain = 0
KCH1 131927Z 07006KT 19/M02 A3027 RMK A01 T01871017  RH  025%=      5-min Rain = 0
KCH1 131928Z 07004KT 19/M02 A3027 RMK A01 T01871022  RH  024%=      5-min Rain = 0
KCH1 131929Z 06005KT 18/M02 A3027 RMK A01 T01831024  RH  024%=      5-min Rain = 0
KCH1 131930Z 08005KT 18/M02 A3027 RMK A01 T01791024  RH  025%=      5-min Rain = 0
KCH1 131931Z 10008KT 18/M02 A3027 RMK A01 T01781020  RH  026%=      5-min Rain = 0
KCH1 131932Z 12009KT 18/M01 A3027 RMK A01 T01841014  RH  026%=      5-min Rain = 0
KCH1 131933Z 11012KT 19/M02 A3027 RMK A01 T01861020  RH  025%=      5-min Rain = 0
KCH1 131934Z 10011KT 18/M02 A3027 RMK A01 T01821023  RH  025%=      5-min Rain = 0
KCH1 131935Z 11013KT 18/M02 A3027 RMK A01 T01821021  RH  025%=      5-min Rain = 0
KCH1 131936Z 12012KT 19/M02 A3027 RMK A01 T01851022  RH  025%=      5-min Rain = 0
KCH1 131937Z 13010KT 18/M02 A3027 RMK A01 T01821023  RH  025%=      5-min Rain = 0
KCH1 131938Z 13005KT 18/M02 A3026 RMK A01 T01811022  RH  025%=      5-min Rain = 0
KCH1 131939Z 09008G13KT 18/M02 A3026 RMK A01 T01821017  RH  026%=      5-min Rain = 0
KCH1 131940Z 08006KT 19/M02 A3026 RMK A01 T01861019  RH  025%=      5-min Rain = 0
KCH1 131941Z 08009G15KT 19/M02 A3026 RMK A01 T01851020  RH  025%=      5-min Rain = 0
KCH1 131942Z 10007KT 19/M02 A3026 RMK A01 T01861015  RH  026%=      5-min Rain = 0
KCH1 131943Z 09011KT 19/M02 A3026 RMK A01 T01891016  RH  025%=      5-min Rain = 0
KCH1 131944Z 11010KT 19/M02 A3026 RMK A01 T01891015  RH  025%=      5-min Rain = 0
KCH1 131945Z 12008KT 19/M02 A3026 RMK A01 T01871019  RH  025%=      5-min Rain = 0
KCH1 131946Z 12007KT 19/M02 A3026 RMK A01 T01851016  RH  026%=      5-min Rain = 0
KCH1 131947Z 09010G15KT 19/M02 A3026 RMK A01 T01851016  RH  025%=      5-min Rain = 0
KCH1 131948Z 11010KT 19/M02 A3026 RMK A01 T01851018  RH  025%=      5-min Rain = 0
KCH1 131949Z 11011KT 18/M02 A3026 RMK A01 T01841018  RH  025%=      5-min Rain = 0
KCH1 131950Z 10011KT 18/M02 A3026 RMK A01 T01831019  RH  025%=      5-min Rain = 0
KCH1 131951Z 11010KT 18/M02 A3026 RMK A01 T01831020  RH  025%=      5-min Rain = 0
KCH1 131952Z 09007KT 18/M02 A3026 RMK A01 T01821018  RH  026%=      5-min Rain = 0
KCH1 131953Z 09004KT 18/M02 A3026 RMK A01 T01841019  RH  025%=      5-min Rain = 0
KCH1 131954Z 10004KT 19/M02 A3026 RMK A01 T01861016  RH  025%=      5-min Rain = 0
KCH1 131955Z 10005KT 19/M02 A3026 RMK A01 T01891015  RH  025%=      5-min Rain = 0
KCH1 131956Z 06004KT 19/M02 A3026 RMK A01 T01891019  RH  024%=      5-min Rain = 0
KCH1 131957Z 08007KT 19/M02 A3026 RMK A01 T01891019  RH  024%=      5-min Rain = 0
KCH1 131958Z 08007KT 19/M02 A3026 RMK A01 T01881017  RH  025%=      5-min Rain = 0
KCH1 131959Z 11005KT 19/M02 A3026 RMK A01 T01881015  RH  025%=      5-min Rain = 0
KCH1 132000Z 10006KT 19/M02 A3026 RMK A01 T01891017  RH  025%=      5-min Rain = 0
KCH1 132001Z 05005KT 19/M02 A3025 RMK A01 T01861022  RH  024%=      5-min Rain = 0
KCH1 132002Z 05004KT 18/M02 A3026 RMK A01 T01821023  RH  025%=      5-min Rain = 0
KCH1 132003Z 10012KT 18/M02 A3026 RMK A01 T01811019  RH  026%=      5-min Rain = 0
KCH1 132004Z 11010KT 19/M02 A3025 RMK A01 T01851020  RH  025%=      5-min Rain = 0
KCH1 132005Z 09009G16KT 19/M02 A3025 RMK A01 T01851020  RH  025%=      5-min Rain = 0
KCH1 132006Z 06015KT 19/M02 A3025 RMK A01 T01871018  RH  025%=      5-min Rain = 0
KCH1 132007Z 07012KT 19/M02 A3025 RMK A01 T01881019  RH  024%=      5-min Rain = 0
KCH1 132008Z 08011KT 19/M02 A3026 RMK A01 T01871021  RH  024%=      5-min Rain = 0
KCH1 132009Z 07007KT 19/M02 A3026 RMK A01 T01851022  RH  025%=      5-min Rain = 0
KCH1 132010Z 08009KT 18/M02 A3026 RMK A01 T01841023  RH  024%=      5-min Rain = 0
KCH1 132011Z 11007G13KT 18/M02 A3026 RMK A01 T01831022  RH  025%=      5-min Rain = 0
KCH1 132012Z 10010KT 18/M02 A3025 RMK A01 T01831020  RH  025%=      5-min Rain = 0
KCH1 132013Z 10009KT 19/M02 A3026 RMK A01 T01861022  RH  024%=      5-min Rain = 0
KCH1 132014Z 09008KT 18/M02 A3026 RMK A01 T01841022  RH  025%=      5-min Rain = 0
KCH1 132015Z 08009KT 18/M02 A3026 RMK A01 T01841020  RH  025%=      5-min Rain = 0
KCH1 132016Z 05009KT 19/M02 A3026 RMK A01 T01851021  RH  024%=      5-min Rain = 0
KCH1 132017Z 04007KT 19/M02 A3026 RMK A01 T01851020  RH  025%=      5-min Rain = 0
KCH1 132018Z 04010KT 19/M02 A3026 RMK A01 T01871018  RH  025%=      5-min Rain = 0
KCH1 132019Z 08006KT 19/M02 A3026 RMK A01 T01881021  RH  024%=      5-min Rain = 0
KCH1 132020Z 09009KT 19/M02 A3026 RMK A01 T01881020  RH  024%=      5-min Rain = 0
KCH1 132021Z 07013KT 19/M02 A3026 RMK A01 T01891022  RH  024%=      5-min Rain = 0
KCH1 132022Z 08014KT 19/M03 A3026 RMK A01 T01891025  RH  023%=      5-min Rain = 0
KCH1 132023Z 07014KT 19/M03 A3026 RMK A01 T01851027  RH  023%=      5-min Rain = 0
KCH1 132024Z 06012KT 19/M03 A3026 RMK A01 T01851026  RH  024%=      5-min Rain = 0
KCH1 132025Z 07010KT 19/M03 A3026 RMK A01 T01851028  RH  023%=      5-min Rain = 0
KCH1 132026Z 06007KT 18/M03 A3026 RMK A01 T01831028  RH  024%=      5-min Rain = 0
KCH1 132027Z 05008KT 18/M03 A3026 RMK A01 T01831025  RH  024%=      5-min Rain = 0
KCH1 132028Z 06006KT 18/M03 A3026 RMK A01 T01821028  RH  024%=      5-min Rain = 0
KCH1 132029Z 06005KT 18/M03 A3026 RMK A01 T01791027  RH  024%=      5-min Rain = 0
KCH1 132030Z 11005KT 18/M03 A3026 RMK A01 T01791025  RH  025%=      5-min Rain = 0
KCH1 132031Z 11008KT 18/M02 A3026 RMK A01 T01811020  RH  025%=      5-min Rain = 0
KCH1 132032Z 10005KT 18/M02 A3026 RMK A01 T01831022  RH  025%=      5-min Rain = 0
KCH1 132033Z 14005KT 18/M02 A3026 RMK A01 T01831020  RH  025%=      5-min Rain = 0
KCH1 132034Z 14003KT 18/M02 A3026 RMK A01 T01841022  RH  025%=      5-min Rain = 0
KCH1 132035Z 12003KT 18/M02 A3026 RMK A01 T01841021  RH  025%=      5-min Rain = 0
KCH1 132036Z 09006KT 19/M02 A3026 RMK A01 T01851021  RH  025%=      5-min Rain = 0
KCH1 132037Z 10005KT 19/M02 A3025 RMK A01 T01851024  RH  024%=      5-min Rain = 0
KCH1 132038Z 11006KT 19/M02 A3025 RMK A01 T01851023  RH  024%=      5-min Rain = 0
KCH1 132039Z 08006KT 19/M02 A3025 RMK A01 T01861021  RH  024%=      5-min Rain = 0
KCH1 132040Z 10012KT 19/M02 A3025 RMK A01 T01901019  RH  024%=      5-min Rain = 0
KCH1 132041Z 09014KT 19/M02 A3025 RMK A01 T01921023  RH  023%=      5-min Rain = 0
KCH1 132042Z 09011KT 19/M03 A3025 RMK A01 T01901026  RH  023%=      5-min Rain = 0
KCH1 132043Z 08009G14KT 19/M03 A3025 RMK A01 T01871027  RH  023%=      5-min Rain = 0
KCH1 132044Z 08006G11KT 18/M03 A3025 RMK A01 T01821030  RH  023%=      5-min Rain = 0
KCH1 132045Z 11009KT 18/M02 A3025 RMK A01 T01801023  RH  025%=      5-min Rain = 0
KCH1 132046Z 13007KT 19/M02 A3025 RMK A01 T01851022  RH  024%=      5-min Rain = 0
KCH1 132047Z 11005KT 19/M03 A3025 RMK A01 T01851026  RH  024%=      5-min Rain = 0
KCH1 132048Z 12008KT 18/M03 A3025 RMK A01 T01831025  RH  024%=      5-min Rain = 0
KCH1 132049Z 13006KT 18/M02 A3025 RMK A01 T01831024  RH  024%=      5-min Rain = 0
KCH1 132050Z 13006KT 18/M03 A3025 RMK A01 T01831025  RH  024%=      5-min Rain = 0
KCH1 132051Z 08012KT 19/M02 A3025 RMK A01 T01861021  RH  024%=      5-min Rain = 0
KCH1 132052Z 09014KT 19/M03 A3025 RMK A01 T01881025  RH  023%=      5-min Rain = 0
KCH1 132053Z 09010KT 19/M03 A3025 RMK A01 T01881029  RH  023%=      5-min Rain = 0
KCH1 132054Z 09011KT 19/M03 A3025 RMK A01 T01871027  RH  023%=      5-min Rain = 0
KCH1 132055Z 10012KT 19/M03 A3025 RMK A01 T01871027  RH  023%=      5-min Rain = 0
KCH1 132056Z 09011KT 19/M03 A3025 RMK A01 T01881026  RH  023%=      5-min Rain = 0
KCH1 132057Z 09008KT 19/M03 A3025 RMK A01 T01891028  RH  023%=      5-min Rain = 0
KCH1 132058Z 08007KT 19/M03 A3025 RMK A01 T01881029  RH  023%=      5-min Rain = 0
KCH1 132059Z 07008KT 19/M03 A3025 RMK A01 T01851034  RH  022%=      5-min Rain = 0
KCH1 132100Z 06004KT 18/M03 A3025 RMK A01 T01831030  RH  023%=      5-min Rain = 0
KCH1 132101Z 09003KT 18/M03 A3025 RMK A01 T01841032  RH  023%=      5-min Rain = 0
KCH1 132102Z 11004KT 18/M03 A3025 RMK A01 T01841032  RH  023%=      5-min Rain = 0
KCH1 132103Z 09006KT 18/M03 A3025 RMK A01 T01841027  RH  024%=      5-min Rain = 0
KCH1 132104Z 10011KT 19/M03 A3025 RMK A01 T01871025  RH  024%=      5-min Rain = 0
KCH1 132105Z 10009KT 19/M03 A3025 RMK A01 T01881027  RH  023%=      5-min Rain = 0
KCH1 132106Z 12009KT 19/M03 A3025 RMK A01 T01871027  RH  023%=      5-min Rain = 0
KCH1 132107Z 13006KT 18/M03 A3025 RMK A01 T01841025  RH  024%=      5-min Rain = 0
KCH1 132108Z 16008KT 19/M03 A3025 RMK A01 T01851025  RH  024%=      5-min Rain = 0
KCH1 132109Z 17006KT 18/M03 A3025 RMK A01 T01841028  RH  023%=      5-min Rain = 0
KCH1 132110Z 14004KT 18/M03 A3025 RMK A01 T01831026  RH  024%=      5-min Rain = 0
KCH1 132111Z 11006KT 19/M02 A3025 RMK A01 T01851023  RH  024%=      5-min Rain = 0
KCH1 132112Z 10008KT 19/M03 A3025 RMK A01 T01871025  RH  023%=      5-min Rain = 0
KCH1 132113Z 12010KT 19/M03 A3025 RMK A01 T01871026  RH  023%=      5-min Rain = 0
KCH1 132114Z 12011KT 19/M03 A3025 RMK A01 T01881027  RH  023%=      5-min Rain = 0
KCH1 132115Z 12015KT 19/M03 A3025 RMK A01 T01881026  RH  023%=      5-min Rain = 0
KCH1 132116Z 11010KT 19/M03 A3025 RMK A01 T01881028  RH  023%=      5-min Rain = 0
KCH1 132117Z 11012G17KT 19/M03 A3025 RMK A01 T01881029  RH  023%=      5-min Rain = 0
KCH1 132118Z 10011G16KT 19/M03 A3025 RMK A01 T01871028  RH  023%=      5-min Rain = 0
KCH1 132119Z 09013KT 19/M03 A3025 RMK A01 T01861026  RH  024%=      5-min Rain = 0
KCH1 132120Z 11015KT 19/M03 A3025 RMK A01 T01871026  RH  023%=      5-min Rain = 0
KCH1 132121Z 11013KT 19/M03 A3025 RMK A01 T01861027  RH  023%=      5-min Rain = 0
KCH1 132122Z 09007KT 19/M03 A3025 RMK A01 T01851027  RH  024%=      5-min Rain = 0
KCH1 132123Z 13009KT 19/M03 A3025 RMK A01 T01851027  RH  024%=      5-min Rain = 0
KCH1 132124Z 12009KT 18/M03 A3025 RMK A01 T01841025  RH  024%=      5-min Rain = 0
KCH1 132125Z 08009KT 19/M02 A3025 RMK A01 T01861022  RH  024%=      5-min Rain = 0
KCH1 132126Z 07007KT 19/M03 A3025 RMK A01 T01881026  RH  023%=      5-min Rain = 0
KCH1 132127Z 08007KT 19/M03 A3025 RMK A01 T01871026  RH  023%=      5-min Rain = 0
KCH1 132128Z 09008KT 19/M03 A3025 RMK A01 T01871026  RH  023%=      5-min Rain = 0
KCH1 132129Z 10008KT 19/M03 A3025 RMK A01 T01871025  RH  024%=      5-min Rain = 0
KCH1 132130Z 13008KT 19/M03 A3025 RMK A01 T01881026  RH  023%=      5-min Rain = 0
KCH1 132131Z 10006KT 19/M03 A3025 RMK A01 T01861028  RH  023%=      5-min Rain = 0
KCH1 132132Z 08006KT 19/M02 A3025 RMK A01 T01861024  RH  024%=      5-min Rain = 0
KCH1 132133Z 09009G14KT 19/M02 A3025 RMK A01 T01881023  RH  024%=      5-min Rain = 0
KCH1 132134Z 11008KT 19/M02 A3025 RMK A01 T01911024  RH  023%=      5-min Rain = 0
KCH1 132135Z 10010KT 19/M03 A3025 RMK A01 T01891026  RH  023%=      5-min Rain = 0
KCH1 132136Z 11009KT 19/M03 A3025 RMK A01 T01871030  RH  023%=      5-min Rain = 0
KCH1 132137Z 10006KT 18/M03 A3024 RMK A01 T01841028  RH  023%=      5-min Rain = 0
KCH1 132138Z 09008G13KT 18/M03 A3024 RMK A01 T01841027  RH  024%=      5-min Rain = 0
KCH1 132139Z 09007KT 19/M03 A3024 RMK A01 T01861030  RH  023%=      5-min Rain = 0
KCH1 132140Z 07005KT 18/M03 A3024 RMK A01 T01831032  RH  023%=      5-min Rain = 0
KCH1 132141Z 10006KT 18/M03 A3023 RMK A01 T01821029  RH  024%=      5-min Rain = 0
KCH1 132142Z 11008KT 19/M02 A3023 RMK A01 T01861023  RH  024%=      5-min Rain = 0
KCH1 132143Z 11010KT 19/M03 A3024 RMK A01 T01901026  RH  023%=      5-min Rain = 0
KCH1 132144Z 11011KT 19/M03 A3024 RMK A01 T01911026  RH  023%=      5-min Rain = 0
KCH1 132145Z 08012KT 19/M03 A3024 RMK A01 T01901031  RH  022%=      5-min Rain = 0
KCH1 132146Z 08009KT 19/M03 A3024 RMK A01 T01871033  RH  022%=      5-min Rain = 0
KCH1 132147Z 09010KT 19/M03 A3024 RMK A01 T01871033  RH  022%=      5-min Rain = 0
KCH1 132148Z 07011KT 19/M04 A3024 RMK A01 T01851035  RH  022%=      5-min Rain = 0
KCH1 132149Z 06010KT 19/M03 A3024 RMK A01 T01851034  RH  022%=      5-min Rain = 0
KCH1 132150Z 07012KT 19/M03 A3024 RMK A01 T01861033  RH  022%=      5-min Rain = 0
KCH1 132151Z 07013KT 19/M03 A3023 RMK A01 T01861034  RH  022%=      5-min Rain = 0
KCH1 132152Z 06014KT 19/M04 A3023 RMK A01 T01861035  RH  022%=      5-min Rain = 0
KCH1 132153Z 06012KT 19/M04 A3023 RMK A01 T01851036  RH  022%=      5-min Rain = 0
KCH1 132154Z 05010KT 18/M04 A3023 RMK A01 T01831036  RH  022%=      5-min Rain = 0
KCH1 132155Z 05008KT 18/M04 A3023 RMK A01 T01821035  RH  022%=      5-min Rain = 0
KCH1 132156Z 08006KT 18/M04 A3024 RMK A01 T01821036  RH  022%=      5-min Rain = 0
KCH1 132157Z 09007KT 18/M03 A3024 RMK A01 T01841032  RH  023%=      5-min Rain = 0
KCH1 132158Z 10009KT 19/M03 A3024 RMK A01 T01871032  RH  022%=      5-min Rain = 0
KCH1 132159Z 09006KT 19/M03 A3024 RMK A01 T01871034  RH  022%=      5-min Rain = 0
KCH1 132200Z 09013KT 19/M03 A3024 RMK A01 T01861032  RH  023%=      5-min Rain = 0
KCH1 132201Z 07010KT 19/M03 A3024 RMK A01 T01861030  RH  023%=      5-min Rain = 0
KCH1 132202Z 08009KT 19/M03 A3024 RMK A01 T01861031  RH  023%=      5-min Rain = 0
KCH1 132203Z 06008KT 18/M03 A3024 RMK A01 T01841034  RH  023%=      5-min Rain = 0
KCH1 132204Z 06006KT 18/M04 A3024 RMK A01 T01801035  RH  023%=      5-min Rain = 0
KCH1 132205Z 05006KT 18/M03 A3024 RMK A01 T01791033  RH  023%=      5-min Rain = 0
KCH1 132206Z 05007KT 18/M03 A3023 RMK A01 T01791032  RH  024%=      5-min Rain = 0
KCH1 132207Z 09006KT 18/M03 A3023 RMK A01 T01821030  RH  024%=      5-min Rain = 0
KCH1 132208Z 11007KT 18/M03 A3024 RMK A01 T01841028  RH  023%=      5-min Rain = 0
KCH1 132209Z 09009KT 19/M03 A3024 RMK A01 T01861029  RH  023%=      5-min Rain = 0
KCH1 132210Z 09011KT 19/M03 A3024 RMK A01 T01871031  RH  023%=      5-min Rain = 0
KCH1 132211Z 09010KT 19/M03 A3024 RMK A01 T01861032  RH  022%=      5-min Rain = 0
KCH1 132212Z 08009KT 19/M04 A3024 RMK A01 T01851035  RH  022%=      5-min Rain = 0
KCH1 132213Z 08008KT 18/M03 A3024 RMK A01 T01831034  RH  023%=      5-min Rain = 0
KCH1 132214Z 06012KT 19/M03 A3024 RMK A01 T01851033  RH  023%=      5-min Rain = 0
KCH1 132215Z 07009KT 18/M04 A3024 RMK A01 T01841036  RH  022%=      5-min Rain = 0
KCH1 132216Z 07008KT 18/M04 A3023 RMK A01 T01831037  RH  022%=      5-min Rain = 0
KCH1 132217Z 05009KT 18/M04 A3023 RMK A01 T01831035  RH  022%=      5-min Rain = 0
KCH1 132218Z 03012KT 18/M04 A3023 RMK A01 T01841035  RH  022%=      5-min Rain = 0
KCH1 132219Z 03010KT 18/M04 A3024 RMK A01 T01841036  RH  022%=      5-min Rain = 0
KCH1 132220Z 04006G12KT 19/M03 A3023 RMK A01 T01851032  RH  023%=      5-min Rain = 0
KCH1 132221Z 06012KT 19/M03 A3023 RMK A01 T01871033  RH  022%=      5-min Rain = 0
KCH1 132222Z 07013KT 19/M04 A3023 RMK A01 T01861035  RH  022%=      5-min Rain = 0
KCH1 132223Z 06012KT 19/M04 A3023 RMK A01 T01851036  RH  022%=      5-min Rain = 0
KCH1 132224Z 07012KT 18/M04 A3023 RMK A01 T01831037  RH  022%=      5-min Rain = 0
KCH1 132225Z 05009KT 18/M04 A3023 RMK A01 T01821037  RH  022%=      5-min Rain = 0
KCH1 132226Z 06006KT 18/M04 A3023 RMK A01 T01821036  RH  023%=      5-min Rain = 0
KCH1 132227Z 06007KT 18/M04 A3023 RMK A01 T01821036  RH  022%=      5-min Rain = 0
KCH1 132228Z 08011KT 18/M04 A3023 RMK A01 T01841035  RH  022%=      5-min Rain = 0
KCH1 132229Z 09013KT 19/M04 A3023 RMK A01 T01851036  RH  022%=      5-min Rain = 0
KCH1 132230Z 09008KT 18/M04 A3023 RMK A01 T01841038  RH  022%=      5-min Rain = 0
KCH1 132231Z 09008KT 18/M04 A3023 RMK A01 T01831038  RH  022%=      5-min Rain = 0
KCH1 132232Z 09007KT 18/M04 A3023 RMK A01 T01821041  RH  022%=      5-min Rain = 0
KCH1 132233Z 09010KT 18/M04 A3023 RMK A01 T01801039  RH  022%=      5-min Rain = 0
KCH1 132234Z 09009KT 18/M04 A3023 RMK A01 T01821037  RH  022%=      5-min Rain = 0
KCH1 132235Z 10010KT 18/M04 A3023 RMK A01 T01831039  RH  022%=      5-min Rain = 0
KCH1 132236Z 10008KT 18/M04 A3023 RMK A01 T01821041  RH  022%=      5-min Rain = 0
KCH1 132237Z 11007KT 18/M04 A3023 RMK A01 T01811041  RH  022%=      5-min Rain = 0
KCH1 132238Z 10007KT 18/M04 A3023 RMK A01 T01811039  RH  022%=      5-min Rain = 0
KCH1 132239Z 09009KT 18/M04 A3023 RMK A01 T01821040  RH  022%=      5-min Rain = 0
KCH1 132240Z 09009KT 18/M04 A3023 RMK A01 T01821042  RH  022%=      5-min Rain = 0
KCH1 132241Z 07009KT 18/M04 A3023 RMK A01 T01821040  RH  022%=      5-min Rain = 0
KCH1 132242Z 06007G14KT 18/M04 A3023 RMK A01 T01811040  RH  022%=      5-min Rain = 0
KCH1 132243Z 09012KT 18/M04 A3023 RMK A01 T01821038  RH  022%=      5-min Rain = 0
KCH1 132244Z 10010KT 18/M04 A3023 RMK A01 T01821038  RH  022%=      5-min Rain = 0
KCH1 132245Z 11008KT 18/M04 A3023 RMK A01 T01811039  RH  022%=      5-min Rain = 0
KCH1 132246Z 11006KT 18/M04 A3023 RMK A01 T01811036  RH  023%=      5-min Rain = 0
KCH1 132247Z 11008KT 18/M03 A3023 RMK A01 T01831034  RH  023%=      5-min Rain = 0
KCH1 132248Z 09011G20KT 18/M03 A3023 RMK A01 T01841034  RH  022%=      5-min Rain = 0
KCH1 132249Z 06012G17KT 19/M04 A3023 RMK A01 T01851037  RH  022%=      5-min Rain = 0
KCH1 132250Z 08010KT 18/M04 A3023 RMK A01 T01831040  RH  022%=      5-min Rain = 0
KCH1 132251Z 08011KT 18/M04 A3023 RMK A01 T01811042  RH  022%=      5-min Rain = 0
KCH1 132252Z 07011KT 18/M04 A3023 RMK A01 T01791042  RH  022%=      5-min Rain = 0
KCH1 132253Z 06010KT 18/M04 A3023 RMK A01 T01791041  RH  022%=      5-min Rain = 0
KCH1 132254Z 07009KT 18/M04 A3023 RMK A01 T01791040  RH  022%=      5-min Rain = 0
KCH1 132255Z 08012KT 18/M04 A3023 RMK A01 T01801038  RH  022%=      5-min Rain = 0
KCH1 132256Z 09011KT 18/M04 A3023 RMK A01 T01801041  RH  022%=      5-min Rain = 0
KCH1 132257Z 08010KT 18/M04 A3023 RMK A01 T01781042  RH  022%=      5-min Rain = 0
KCH1 132258Z 06012KT 18/M04 A3023 RMK A01 T01791039  RH  022%=      5-min Rain = 0
KCH1 132259Z 07012KT 18/M04 A3023 RMK A01 T01791041  RH  022%=      5-min Rain = 0
KCH1 132300Z 08012KT 18/M04 A3023 RMK A01 T01791041  RH  022%=      5-min Rain = 0
KCH1 132301Z 07009KT 18/M04 A3023 RMK A01 T01781043  RH  022%=      5-min Rain = 0
KCH1 132302Z 08007KT 18/M04 A3023 RMK A01 T01771042  RH  022%=      5-min Rain = 0
KCH1 132303Z 07008KT 18/M04 A3023 RMK A01 T01781040  RH  022%=      5-min Rain = 0
KCH1 132304Z 06010KT 18/M04 A3023 RMK A01 T01791040  RH  022%=      5-min Rain = 0
KCH1 132305Z 05009KT 18/M04 A3023 RMK A01 T01791042  RH  022%=      5-min Rain = 0
KCH1 132306Z 08009KT 18/M05 A3023 RMK A01 T01771045  RH  022%=      5-min Rain = 0
KCH1 132307Z 08010KT 18/M04 A3023 RMK A01 T01771043  RH  022%=      5-min Rain = 0
KCH1 132308Z 09011KT 18/M04 A3023 RMK A01 T01781043  RH  022%=      5-min Rain = 0
KCH1 132309Z 09010KT 18/M05 A3023 RMK A01 T01801045  RH  021%=      5-min Rain = 0
KCH1 132310Z 09011KT 18/M05 A3023 RMK A01 T01791046  RH  021%=      5-min Rain = 0
KCH1 132311Z 09008KT 18/M05 A3023 RMK A01 T01781045  RH  021%=      5-min Rain = 0
KCH1 132312Z 09011KT 18/M04 A3023 RMK A01 T01781044  RH  022%=      5-min Rain = 0
KCH1 132313Z 10009KT 18/M04 A3023 RMK A01 T01771043  RH  022%=      5-min Rain = 0
KCH1 132314Z 10009KT 18/M04 A3023 RMK A01 T01771042  RH  022%=      5-min Rain = 0
KCH1 132315Z 10011KT 18/M04 A3023 RMK A01 T01781041  RH  022%=      5-min Rain = 0
KCH1 132316Z 11010KT 18/M04 A3023 RMK A01 T01781042  RH  022%=      5-min Rain = 0
KCH1 132317Z 10013KT 18/M04 A3023 RMK A01 T01771044  RH  022%=      5-min Rain = 0
KCH1 132318Z 10011KT 18/M04 A3023 RMK A01 T01761043  RH  022%=      5-min Rain = 0
KCH1 132319Z 11013KT 18/M04 A3023 RMK A01 T01761043  RH  022%=      5-min Rain = 0
KCH1 132320Z 11012KT 18/M04 A3023 RMK A01 T01761044  RH  022%=      5-min Rain = 0
KCH1 132321Z 10010KT 18/M04 A3023 RMK A01 T01751044  RH  022%=      5-min Rain = 0
KCH1 132322Z 08012KT 18/M04 A3023 RMK A01 T01761044  RH  022%=      5-min Rain = 0
KCH1 132323Z 07012KT 18/M05 A3023 RMK A01 T01761045  RH  022%=      5-min Rain = 0
KCH1 132324Z 07011KT 18/M05 A3023 RMK A01 T01761045  RH  022%=      5-min Rain = 0
KCH1 132325Z 08009KT 18/M05 A3023 RMK A01 T01751045  RH  022%=      5-min Rain = 0
KCH1 132326Z 07009KT 17/M04 A3023 RMK A01 T01741044  RH  022%=      5-min Rain = 0
KCH1 132327Z 07010KT 17/M04 A3023 RMK A01 T01741044  RH  022%=      5-min Rain = 0
KCH1 132328Z 07010KT 17/M04 A3023 RMK A01 T01731044  RH  022%=      5-min Rain = 0
KCH1 132329Z 06011KT 17/M04 A3022 RMK A01 T01731043  RH  023%=      5-min Rain = 0
KCH1 132330Z 07011KT 17/M04 A3022 RMK A01 T01731043  RH  023%=      5-min Rain = 0
KCH1 132331Z 07010KT 17/M04 A3022 RMK A01 T01721043  RH  023%=      5-min Rain = 0
KCH1 132332Z 08010KT 17/M04 A3022 RMK A01 T01721042  RH  023%=      5-min Rain = 0
KCH1 132333Z 09010KT 17/M04 A3022 RMK A01 T01721042  RH  023%=      5-min Rain = 0
KCH1 132334Z 08011KT 17/M04 A3023 RMK A01 T01731041  RH  023%=      5-min Rain = 0
KCH1 132335Z 09010KT 17/M04 A3023 RMK A01 T01731043  RH  023%=      5-min Rain = 0
KCH1 132336Z 07008KT 17/M04 A3023 RMK A01 T01731043  RH  023%=      5-min Rain = 0
KCH1 132337Z 06007KT 17/M04 A3023 RMK A01 T01731042  RH  023%=      5-min Rain = 0
KCH1 132338Z 08008KT 17/M04 A3023 RMK A01 T01731041  RH  023%=      5-min Rain = 0
KCH1 132339Z 07009KT 17/M04 A3023 RMK A01 T01741042  RH  023%=      5-min Rain = 0
KCH1 132340Z 06008KT 17/M04 A3023 RMK A01 T01741041  RH  023%=      5-min Rain = 0
KCH1 132341Z 09010KT 17/M04 A3023 RMK A01 T01741040  RH  023%=      5-min Rain = 0
KCH1 132342Z 09009KT 17/M04 A3023 RMK A01 T01731042  RH  023%=      5-min Rain = 0
KCH1 132343Z 08010KT 17/M04 A3023 RMK A01 T01731041  RH  023%=      5-min Rain = 0
KCH1 132344Z 07008KT 17/M04 A3023 RMK A01 T01721042  RH  023%=      5-min Rain = 0
KCH1 132345Z 06008KT 17/M04 A3024 RMK A01 T01721039  RH  023%=      5-min Rain = 0
KCH1 132346Z 06011KT 17/M04 A3024 RMK A01 T01731040  RH  023%=      5-min Rain = 0
KCH1 132347Z 05010KT 17/M04 A3024 RMK A01 T01721041  RH  023%=      5-min Rain = 0
KCH1 132348Z 07009KT 17/M04 A3024 RMK A01 T01721040  RH  023%=      5-min Rain = 0
KCH1 132349Z 06011KT 17/M04 A3024 RMK A01 T01711041  RH  023%=      5-min Rain = 0
KCH1 132350Z 06013KT 17/M04 A3024 RMK A01 T01701041  RH  023%=      5-min Rain = 0
KCH1 132351Z 06010KT 17/M04 A3024 RMK A01 T01691039  RH  024%=      5-min Rain = 0
KCH1 132352Z 05009KT 17/M04 A3024 RMK A01 T01691039  RH  024%=      5-min Rain = 0
KCH1 132353Z 06011KT 17/M04 A3024 RMK A01 T01691039  RH  024%=      5-min Rain = 0
KCH1 132354Z 06013KT 17/M04 A3024 RMK A01 T01691038  RH  024%=      5-min Rain = 0
KCH1 132355Z 08011KT 17/M04 A3024 RMK A01 T01691038  RH  024%=      5-min Rain = 0
KCH1 132356Z 09009KT 17/M04 A3024 RMK A01 T01691037  RH  024%=      5-min Rain = 0
KCH1 132357Z 09009KT 17/M04 A3024 RMK A01 T01691037  RH  024%=      5-min Rain = 0
KCH1 132358Z 10007KT 17/M04 A3024 RMK A01 T01691037  RH  024%=      5-min Rain = 0
KCH1 132359Z 10008KT 17/M04 A3024 RMK A01 T01691037  RH  024%=      5-min Rain = 0
KCH1 140000Z 09008KT 17/M04 A3024 RMK A01 T01681038  RH  024%=      5-min Rain = 0
KCH1 140001Z 10008KT 17/M04 A3024 RMK A01 T01681038  RH  024%=      5-min Rain = 0
KCH1 140002Z 09008KT 17/M04 A3024 RMK A01 T01681038  RH  024%=      5-min Rain = 0
KCH1 140003Z 09008KT 17/M04 A3024 RMK A01 T01681038  RH  024%=      5-min Rain = 0
KCH1 140004Z 09007KT 17/M04 A3024 RMK A01 T01671039  RH  024%=      5-min Rain = 0
KCH1 140005Z 09009KT 17/M04 A3024 RMK A01 T01671038  RH  024%=      5-min Rain = 0
KCH1 140006Z 09009KT 17/M04 A3024 RMK A01 T01661038  RH  024%=      5-min Rain = 0
KCH1 140007Z 08008KT 17/M04 A3024 RMK A01 T01661037  RH  025%=      5-min Rain = 0
KCH1 140008Z 08008KT 17/M04 A3024 RMK A01 T01661036  RH  025%=      5-min Rain = 0
KCH1 140009Z 08010KT 17/M04 A3024 RMK A01 T01651037  RH  025%=      5-min Rain = 0
KCH1 140010Z 08008KT 16/M04 A3024 RMK A01 T01641039  RH  025%=      5-min Rain = 0
KCH1 140011Z 07007KT 17/M04 A3024 RMK A01 T01651038  RH  025%=      5-min Rain = 0
KCH1 140012Z 06010KT 16/M04 A3024 RMK A01 T01641038  RH  025%=      5-min Rain = 0
KCH1 140013Z 05012KT 16/M04 A3024 RMK A01 T01631038  RH  025%=      5-min Rain = 0
KCH1 140014Z 06010KT 16/M04 A3024 RMK A01 T01631037  RH  025%=      5-min Rain = 0
KCH1 140015Z 07011KT 16/M04 A3024 RMK A01 T01631037  RH  025%=      5-min Rain = 0
KCH1 140016Z 06011KT 16/M04 A3024 RMK A01 T01621037  RH  025%=      5-min Rain = 0
KCH1 140017Z 06011KT 16/M04 A3024 RMK A01 T01621037  RH  025%=      5-min Rain = 0
KCH1 140018Z 07011KT 16/M04 A3024 RMK A01 T01601038  RH  025%=      5-min Rain = 0
KCH1 140019Z 07012KT 16/M04 A3024 RMK A01 T01601038  RH  025%=      5-min Rain = 0
KCH1 140020Z 07010KT 16/M04 A3024 RMK A01 T01611038  RH  025%=      5-min Rain = 0
KCH1 140021Z 07010KT 16/M04 A3024 RMK A01 T01611037  RH  025%=      5-min Rain = 0
KCH1 140022Z 07012KT 16/M04 A3024 RMK A01 T01591038  RH  026%=      5-min Rain = 0
KCH1 140023Z 07012KT 16/M04 A3024 RMK A01 T01591038  RH  026%=      5-min Rain = 0
KCH1 140024Z 06009KT 16/M04 A3024 RMK A01 T01591037  RH  026%=      5-min Rain = 0
KCH1 140025Z 07009KT 16/M04 A3024 RMK A01 T01581037  RH  026%=      5-min Rain = 0
KCH1 140026Z 07009KT 16/M04 A3024 RMK A01 T01571036  RH  026%=      5-min Rain = 0
KCH1 140027Z 06012KT 16/M04 A3024 RMK A01 T01571037  RH  026%=      5-min Rain = 0
KCH1 140028Z 08009KT 16/M04 A3024 RMK A01 T01561036  RH  026%=      5-min Rain = 0
KCH1 140029Z 07009KT 16/M04 A3024 RMK A01 T01551036  RH  027%=      5-min Rain = 0
KCH1 140030Z 07009KT 16/M04 A3024 RMK A01 T01551035  RH  027%=      5-min Rain = 0
KCH1 140031Z 07009KT 15/M04 A3024 RMK A01 T01541035  RH  027%=      5-min Rain = 0
KCH1 140032Z 07008KT 15/M04 A3024 RMK A01 T01541036  RH  027%=      5-min Rain = 0
KCH1 140033Z 07009KT 15/M04 A3024 RMK A01 T01531036  RH  027%=      5-min Rain = 0
KCH1 140034Z 07008KT 15/M04 A3024 RMK A01 T01521035  RH  027%=      5-min Rain = 0
KCH1 140035Z 07011KT 15/M04 A3024 RMK A01 T01521035  RH  027%=      5-min Rain = 0
KCH1 140036Z 07008KT 15/M04 A3024 RMK A01 T01531035  RH  027%=      5-min Rain = 0
KCH1 140037Z 07007KT 15/M04 A3024 RMK A01 T01531035  RH  027%=      5-min Rain = 0
KCH1 140038Z 07008KT 15/M04 A3024 RMK A01 T01511035  RH  027%=      5-min Rain = 0
KCH1 140039Z 07008KT 15/M04 A3024 RMK A01 T01501035  RH  028%=      5-min Rain = 0
KCH1 140040Z 07007KT 15/M04 A3024 RMK A01 T01491035  RH  028%=      5-min Rain = 0
KCH1 140041Z 07009KT 15/M04 A3024 RMK A01 T01481035  RH  028%=      5-min Rain = 0
KCH1 140042Z 07009KT 15/M04 A3024 RMK A01 T01481036  RH  028%=      5-min Rain = 0
KCH1 140043Z 07009KT 15/M04 A3025 RMK A01 T01481036  RH  028%=      5-min Rain = 0
KCH1 140044Z 07008KT 15/M04 A3025 RMK A01 T01491036  RH  028%=      5-min Rain = 0
KCH1 140045Z 07008KT 15/M04 A3025 RMK A01 T01481036  RH  028%=      5-min Rain = 0
KCH1 140046Z 07007KT 15/M04 A3025 RMK A01 T01481036  RH  028%=      5-min Rain = 0
KCH1 140047Z 07007KT 15/M04 A3025 RMK A01 T01461036  RH  028%=      5-min Rain = 0
KCH1 140048Z 07007KT 15/M04 A3025 RMK A01 T01451036  RH  028%=      5-min Rain = 0
KCH1 140049Z 07007KT 14/M04 A3025 RMK A01 T01441036  RH  029%=      5-min Rain = 0
KCH1 140050Z 07007KT 14/M04 A3025 RMK A01 T01431036  RH  029%=      5-min Rain = 0
KCH1 140051Z 07007KT 14/M04 A3025 RMK A01 T01421036  RH  029%=      5-min Rain = 0
KCH1 140052Z 07007KT 14/M04 A3025 RMK A01 T01411036  RH  029%=      5-min Rain = 0
KCH1 140053Z 07007KT 14/M04 A3025 RMK A01 T01401037  RH  029%=      5-min Rain = 0
KCH1 140054Z 07007KT 14/M04 A3025 RMK A01 T01401036  RH  029%=      5-min Rain = 0
KCH1 140055Z 07006KT 14/M04 A3025 RMK A01 T01401036  RH  029%=      5-min Rain = 0
KCH1 140056Z 07006KT 14/M04 A3025 RMK A01 T01391036  RH  030%=      5-min Rain = 0
KCH1 140057Z 07007KT 14/M04 A3025 RMK A01 T01371036  RH  030%=      5-min Rain = 0
KCH1 140058Z 06007KT 14/M04 A3025 RMK A01 T01361036  RH  030%=      5-min Rain = 0
KCH1 140059Z 07006KT 14/M04 A3025 RMK A01 T01361036  RH  030%=      5-min Rain = 0
KCH1 140100Z 07006KT 14/M04 A3025 RMK A01 T01361035  RH  030%=      5-min Rain = 0
KCH1 140101Z 07007KT 14/M04 A3025 RMK A01 T01361035  RH  030%=      5-min Rain = 0
KCH1 140102Z 07007KT 14/M04 A3025 RMK A01 T01361035  RH  030%=      5-min Rain = 0
KCH1 140103Z 07007KT 14/M04 A3025 RMK A01 T01351035  RH  030%=      5-min Rain = 0
KCH1 140104Z 06007KT 14/M04 A3025 RMK A01 T01351035  RH  031%=      5-min Rain = 0
KCH1 140105Z 07007KT 13/M04 A3025 RMK A01 T01341036  RH  031%=      5-min Rain = 0
KCH1 140106Z 07007KT 13/M04 A3026 RMK A01 T01341035  RH  031%=      5-min Rain = 0
KCH1 140107Z 07008KT 13/M04 A3026 RMK A01 T01331035  RH  031%=      5-min Rain = 0
KCH1 140108Z 07007KT 13/M03 A3026 RMK A01 T01341034  RH  031%=      5-min Rain = 0
KCH1 140109Z 07007KT 13/M04 A3026 RMK A01 T01321035  RH  031%=      5-min Rain = 0
KCH1 140110Z 07008KT 13/M04 A3026 RMK A01 T01321035  RH  031%=      5-min Rain = 0
KCH1 140111Z 07008KT 13/M04 A3026 RMK A01 T01321035  RH  031%=      5-min Rain = 0
KCH1 140112Z 07008KT 13/M04 A3026 RMK A01 T01321035  RH  031%=      5-min Rain = 0
KCH1 140113Z 07008KT 13/M04 A3026 RMK A01 T01321035  RH  031%=      5-min Rain = 0
KCH1 140114Z 07008KT 13/M04 A3026 RMK A01 T01321035  RH  031%=      5-min Rain = 0
KCH1 140115Z 07008KT 13/M03 A3026 RMK A01 T01311034  RH  031%=      5-min Rain = 0
KCH1 140116Z 06008KT 13/M03 A3026 RMK A01 T01291034  RH  032%=      5-min Rain = 0
KCH1 140117Z 07007KT 13/M03 A3026 RMK A01 T01281034  RH  032%=      5-min Rain = 0
KCH1 140118Z 07007KT 13/M03 A3026 RMK A01 T01281034  RH  032%=      5-min Rain = 0
KCH1 140119Z 07007KT 13/M03 A3026 RMK A01 T01271034  RH  032%=      5-min Rain = 0
KCH1 140120Z 07007KT 13/M03 A3026 RMK A01 T01271034  RH  032%=      5-min Rain = 0
KCH1 140121Z 07007KT 13/M03 A3026 RMK A01 T01261034  RH  033%=      5-min Rain = 0
KCH1 140122Z 07008KT 13/M03 A3026 RMK A01 T01261034  RH  033%=      5-min Rain = 0
KCH1 140123Z 07007KT 13/M03 A3026 RMK A01 T01261034  RH  033%=      5-min Rain = 0
KCH1 140124Z 07007KT 13/M03 A3026 RMK A01 T01261034  RH  033%=      5-min Rain = 0
KCH1 140125Z 07007KT 13/M03 A3026 RMK A01 T01251034  RH  033%=      5-min Rain = 0
KCH1 140126Z 07007KT 12/M03 A3026 RMK A01 T01241034  RH  033%=      5-min Rain = 0
KCH1 140127Z 07007KT 12/M03 A3026 RMK A01 T01241033  RH  033%=      5-min Rain = 0
KCH1 140128Z 07006KT 12/M03 A3027 RMK A01 T01231033  RH  033%=      5-min Rain = 0
KCH1 140129Z 07006KT 12/M03 A3027 RMK A01 T01231034  RH  033%=      5-min Rain = 0
KCH1 140130Z 07006KT 12/M03 A3027 RMK A01 T01221033  RH  034%=      5-min Rain = 0
KCH1 140131Z 07006KT 12/M03 A3027 RMK A01 T01221033  RH  034%=      5-min Rain = 0
KCH1 140132Z 07006KT 12/M03 A3027 RMK A01 T01211034  RH  034%=      5-min Rain = 0
KCH1 140133Z 07005KT 12/M03 A3027 RMK A01 T01211033  RH  034%=      5-min Rain = 0
KCH1 140134Z 07006KT 12/M03 A3027 RMK A01 T01201033  RH  034%=      5-min Rain = 0
KCH1 140135Z 07006KT 12/M03 A3027 RMK A01 T01191034  RH  034%=      5-min Rain = 0
KCH1 140136Z 07006KT 12/M03 A3027 RMK A01 T01181034  RH  034%=      5-min Rain = 0
KCH1 140137Z 07006KT 12/M03 A3027 RMK A01 T01181034  RH  034%=      5-min Rain = 0
KCH1 140138Z 07005KT 12/M03 A3027 RMK A01 T01181034  RH  034%=      5-min Rain = 0
KCH1 140139Z 07005KT 12/M03 A3028 RMK A01 T01181034  RH  035%=      5-min Rain = 0
KCH1 140140Z 07005KT 12/M03 A3028 RMK A01 T01171034  RH  035%=      5-min Rain = 0
KCH1 140141Z 06005KT 12/M03 A3028 RMK A01 T01161033  RH  035%=      5-min Rain = 0
KCH1 140142Z 07005KT 12/M03 A3028 RMK A01 T01161034  RH  035%=      5-min Rain = 0
KCH1 140143Z 06004KT 12/M03 A3028 RMK A01 T01161033  RH  035%=      5-min Rain = 0
KCH1 140144Z 06004KT 12/M03 A3028 RMK A01 T01151034  RH  035%=      5-min Rain = 0
KCH1 140145Z 06004KT 12/M03 A3028 RMK A01 T01151034  RH  035%=      5-min Rain = 0
KCH1 140146Z 06004KT 12/M03 A3028 RMK A01 T01151034  RH  035%=      5-min Rain = 0
KCH1 140147Z 06003KT 12/M03 A3028 RMK A01 T01151034  RH  035%=      5-min Rain = 0
KCH1 140148Z 07004KT 12/M03 A3028 RMK A01 T01151033  RH  035%=      5-min Rain = 0
KCH1 140149Z 07004KT 12/M03 A3028 RMK A01 T01151033  RH  035%=      5-min Rain = 0
KCH1 140150Z 07004KT 12/M03 A3028 RMK A01 T01151033  RH  035%=      5-min Rain = 0
KCH1 140151Z 07004KT 12/M03 A3028 RMK A01 T01151033  RH  035%=      5-min Rain = 0
KCH1 140152Z 07004KT 12/M03 A3028 RMK A01 T01151033  RH  035%=      5-min Rain = 0
KCH1 140153Z 07004KT 11/M03 A3028 RMK A01 T01141033  RH  036%=      5-min Rain = 0
KCH1 140154Z 07004KT 11/M03 A3028 RMK A01 T01131034  RH  036%=      5-min Rain = 0
KCH1 140155Z 07004KT 11/M03 A3028 RMK A01 T01111034  RH  036%=      5-min Rain = 0
KCH1 140156Z 06004KT 11/M03 A3028 RMK A01 T01111034  RH  036%=      5-min Rain = 0
KCH1 140157Z 06004KT 11/M03 A3028 RMK A01 T01111034  RH  036%=      5-min Rain = 0
KCH1 140158Z 06004KT 11/M03 A3028 RMK A01 T01101034  RH  036%=      5-min Rain = 0
KCH1 140159Z 06004KT 11/M03 A3028 RMK A01 T01091034  RH  036%=      5-min Rain = 0
KCH1 140200Z 06005KT 11/M03 A3029 RMK A01 T01091034  RH  037%=      5-min Rain = 0
KCH1 140201Z 06005KT 11/M03 A3029 RMK A01 T01081033  RH  037%=      5-min Rain = 0
KCH1 140202Z 06006KT 11/M03 A3029 RMK A01 T01081033  RH  037%=      5-min Rain = 0
KCH1 140203Z 06006KT 11/M03 A3029 RMK A01 T01081033  RH  037%=      5-min Rain = 0
KCH1 140204Z 05005KT 11/M03 A3029 RMK A01 T01071033  RH  037%=      5-min Rain = 0
KCH1 140205Z 05005KT 11/M03 A3029 RMK A01 T01061033  RH  037%=      5-min Rain = 0
KCH1 140206Z 05005KT 11/M03 A3029 RMK A01 T01051033  RH  038%=      5-min Rain = 0
KCH1 140207Z 05006KT 10/M03 A3029 RMK A01 T01041033  RH  038%=      5-min Rain = 0
KCH1 140208Z 06006KT 10/M03 A3029 RMK A01 T01041033  RH  038%=      5-min Rain = 0
KCH1 140209Z 06006KT 10/M03 A3029 RMK A01 T01041032  RH  038%=      5-min Rain = 0
KCH1 140210Z 06006KT 10/M03 A3029 RMK A01 T01041032  RH  038%=      5-min Rain = 0
KCH1 140211Z 06006KT 10/M03 A3029 RMK A01 T01031032  RH  039%=      5-min Rain = 0
KCH1 140212Z 05006KT 10/M03 A3029 RMK A01 T01021032  RH  039%=      5-min Rain = 0
KCH1 140213Z 05006KT 10/M03 A3029 RMK A01 T01021032  RH  039%=      5-min Rain = 0
KCH1 140214Z 05006KT 10/M03 A3029 RMK A01 T01001033  RH  039%=      5-min Rain = 0
KCH1 140215Z 05007KT 10/M03 A3029 RMK A01 T00991032  RH  039%=      5-min Rain = 0
KCH1 140216Z 05007KT 10/M03 A3029 RMK A01 T00981032  RH  040%=      5-min Rain = 0
KCH1 140217Z 05008KT 10/M03 A3029 RMK A01 T00981032  RH  040%=      5-min Rain = 0
KCH1 140218Z 06008KT 10/M03 A3029 RMK A01 T00981031  RH  040%=      5-min Rain = 0
KCH1 140219Z 05008KT 10/M03 A3029 RMK A01 T00981031  RH  040%=      5-min Rain = 0
KCH1 140220Z 05008KT 10/M03 A3029 RMK A01 T00961031  RH  041%=      5-min Rain = 0
KCH1 140221Z 05008KT 10/M03 A3029 RMK A01 T00961031  RH  041%=      5-min Rain = 0
KCH1 140222Z 05008KT 10/M03 A3029 RMK A01 T00961030  RH  041%=      5-min Rain = 0
KCH1 140223Z 05008KT 10/M03 A3029 RMK A01 T00951030  RH  041%=      5-min Rain = 0
KCH1 140224Z 06008KT 09/M03 A3029 RMK A01 T00941030  RH  041%=      5-min Rain = 0
KCH1 140225Z 05008KT 09/M03 A3029 RMK A01 T00941030  RH  042%=      5-min Rain = 0
KCH1 140226Z 06008KT 09/M03 A3029 RMK A01 T00941030  RH  042%=      5-min Rain = 0
KCH1 140227Z 06008KT 09/M03 A3029 RMK A01 T00941030  RH  041%=      5-min Rain = 0
KCH1 140228Z 06008KT 09/M03 A303 RMK A01 T00941030  RH  041%=      5-min Rain = 0
KCH1 140229Z 06007KT 10/M03 A303 RMK A01 T00951030  RH  041%=      5-min Rain = 0
KCH1 140230Z 06007KT 10/M03 A303 RMK A01 T00951030  RH  041%=      5-min Rain = 0
KCH1 140231Z 06008KT 09/M03 A303 RMK A01 T00941030  RH  041%=      5-min Rain = 0
KCH1 140232Z 06008KT 09/M03 A303 RMK A01 T00941031  RH  041%=      5-min Rain = 0
KCH1 140233Z 05008KT 09/M03 A303 RMK A01 T00941030  RH  041%=      5-min Rain = 0
KCH1 140234Z 05007KT 09/M03 A303 RMK A01 T00941030  RH  042%=      5-min Rain = 0
KCH1 140235Z 05007KT 09/M03 A303 RMK A01 T00931030  RH  042%=      5-min Rain = 0
KCH1 140236Z 05008KT 09/M03 A303 RMK A01 T00921030  RH  042%=      5-min Rain = 0
KCH1 140237Z 05008KT 09/M03 A303 RMK A01 T00921030  RH  042%=      5-min Rain = 0
KCH1 140238Z 05008KT 09/M03 A303 RMK A01 T00911030  RH  042%=      5-min Rain = 0
KCH1 140239Z 05008KT 09/M03 A303 RMK A01 T00921030  RH  042%=      5-min Rain = 0
KCH1 140240Z 05008KT 09/M03 A303 RMK A01 T00921029  RH  042%=      5-min Rain = 0
KCH1 140241Z 05007KT 09/M03 A303 RMK A01 T00921029  RH  043%=      5-min Rain = 0
KCH1 140242Z 05008KT 09/M03 A3029 RMK A01 T00911029  RH  043%=      5-min Rain = 0
KCH1 140243Z 05008KT 09/M03 A3029 RMK A01 T00911029  RH  043%=      5-min Rain = 0
KCH1 140244Z 05009KT 09/M03 A3029 RMK A01 T00911029  RH  043%=      5-min Rain = 0
KCH1 140245Z 06009KT 09/M03 A3029 RMK A01 T00911029  RH  043%=      5-min Rain = 0
KCH1 140246Z 06009KT 09/M03 A3029 RMK A01 T00911029  RH  043%=      5-min Rain = 0
KCH1 140247Z 06009KT 09/M03 A3029 RMK A01 T00921029  RH  043%=      5-min Rain = 0
KCH1 140248Z 06008KT 09/M03 A3029 RMK A01 T00921029  RH  042%=      5-min Rain = 0
KCH1 140249Z 06009KT 09/M03 A303 RMK A01 T00921029  RH  042%=      5-min Rain = 0
KCH1 140250Z 06009KT 09/M03 A303 RMK A01 T00921029  RH  042%=      5-min Rain = 0
KCH1 140251Z 06009KT 09/M03 A303 RMK A01 T00931029  RH  042%=      5-min Rain = 0
KCH1 140252Z 06009KT 09/M03 A303 RMK A01 T00941029  RH  042%=      5-min Rain = 0
KCH1 140253Z 06009KT 09/M03 A303 RMK A01 T00941029  RH  042%=      5-min Rain = 0
KCH1 140254Z 06008KT 09/M03 A303 RMK A01 T00941029  RH  042%=      5-min Rain = 0
KCH1 140255Z 06008KT 09/M03 A303 RMK A01 T00931029  RH  042%=      5-min Rain = 0
KCH1 140256Z 06008KT 09/M03 A303 RMK A01 T00931029  RH  042%=      5-min Rain = 0
KCH1 140257Z 06008KT 09/M03 A303 RMK A01 T00931029  RH  042%=      5-min Rain = 0
KCH1 140258Z 06008KT 09/M03 A303 RMK A01 T00921029  RH  042%=      5-min Rain = 0
KCH1 140259Z 06008KT 09/M03 A303 RMK A01 T00921029  RH  042%=      5-min Rain = 0
KCH1 140300Z 06008KT 09/M03 A303 RMK A01 T00921029  RH  043%=      5-min Rain = 0
KCH1 140301Z 06007KT 09/M03 A303 RMK A01 T00901029  RH  043%=      5-min Rain = 0
KCH1 140302Z 06008KT 09/M03 A303 RMK A01 T00901029  RH  043%=      5-min Rain = 0
KCH1 140303Z 06008KT 09/M03 A303 RMK A01 T00901030  RH  043%=      5-min Rain = 0
KCH1 140304Z 06009KT 09/M03 A303 RMK A01 T00911030  RH  043%=      5-min Rain = 0
KCH1 140305Z 06008KT 09/M03 A303 RMK A01 T00911030  RH  043%=      5-min Rain = 0
KCH1 140306Z 06008KT 09/M03 A303 RMK A01 T00911030  RH  043%=      5-min Rain = 0
KCH1 140307Z 06008KT 09/M03 A303 RMK A01 T00901030  RH  043%=      5-min Rain = 0
KCH1 140308Z 06008KT 09/M03 A303 RMK A01 T00901030  RH  043%=      5-min Rain = 0
KCH1 140309Z 06008KT 09/M03 A303 RMK A01 T00911030  RH  043%=      5-min Rain = 0
KCH1 140310Z 06008KT 09/M03 A303 RMK A01 T00911030  RH  043%=      5-min Rain = 0
KCH1 140311Z 06008KT 09/M03 A303 RMK A01 T00901030  RH  043%=      5-min Rain = 0
KCH1 140312Z 06008KT 09/M03 A303 RMK A01 T00901029  RH  043%=      5-min Rain = 0
KCH1 140313Z 06008KT 09/M03 A303 RMK A01 T00901029  RH  043%=      5-min Rain = 0
KCH1 140314Z 06008KT 09/M03 A303 RMK A01 T00901030  RH  043%=      5-min Rain = 0
KCH1 140315Z 06009KT 09/M03 A303 RMK A01 T00901030  RH  043%=      5-min Rain = 0
KCH1 140316Z 06008KT 09/M03 A303 RMK A01 T00911029  RH  043%=      5-min Rain = 0
KCH1 140317Z 06008KT 09/M03 A303 RMK A01 T00911030  RH  043%=      5-min Rain = 0
KCH1 140318Z 06008KT 09/M03 A303 RMK A01 T00911030  RH  043%=      5-min Rain = 0
KCH1 140319Z 06008KT 09/M03 A303 RMK A01 T00911030  RH  043%=      5-min Rain = 0
KCH1 140320Z 06008KT 09/M03 A303 RMK A01 T00901030  RH  043%=      5-min Rain = 0
KCH1 140321Z 06009KT 09/M03 A303 RMK A01 T00901030  RH  043%=      5-min Rain = 0
KCH1 140322Z 06008KT 09/M03 A303 RMK A01 T00901030  RH  043%=      5-min Rain = 0
KCH1 140323Z 06008KT 09/M03 A303 RMK A01 T00901030  RH  043%=      5-min Rain = 0
KCH1 140324Z 06008KT 09/M03 A303 RMK A01 T00901030  RH  043%=      5-min Rain = 0
KCH1 140325Z 06009KT 09/M03 A303 RMK A01 T00891030  RH  043%=      5-min Rain = 0
KCH1 140326Z 06009KT 09/M03 A303 RMK A01 T00891030  RH  043%=      5-min Rain = 0
KCH1 140327Z 06009KT 09/M03 A303 RMK A01 T00891030  RH  043%=      5-min Rain = 0
KCH1 140328Z 06008KT 09/M03 A303 RMK A01 T00891030  RH  043%=      5-min Rain = 0
KCH1 140329Z 06008KT 09/M03 A3031 RMK A01 T00891030  RH  043%=      5-min Rain = 0
KCH1 140330Z 06009KT 09/M03 A3031 RMK A01 T00891030  RH  043%=      5-min Rain = 0
KCH1 140331Z 06008KT 09/M03 A3031 RMK A01 T00891030  RH  043%=      5-min Rain = 0
KCH1 140332Z 06007KT 09/M03 A3031 RMK A01 T00891030  RH  043%=      5-min Rain = 0
KCH1 140333Z 06007KT 09/M03 A3031 RMK A01 T00881031  RH  043%=      5-min Rain = 0
KCH1 140334Z 06007KT 09/M03 A3031 RMK A01 T00881031  RH  043%=      5-min Rain = 0
KCH1 140335Z 06008KT 09/M03 A3031 RMK A01 T00871031  RH  043%=      5-min Rain = 0
KCH1 140336Z 06007KT 09/M03 A3031 RMK A01 T00871031  RH  043%=      5-min Rain = 0
KCH1 140337Z 06007KT 09/M03 A3031 RMK A01 T00861031  RH  044%=      5-min Rain = 0
KCH1 140338Z 06007KT 09/M03 A3031 RMK A01 T00851031  RH  044%=      5-min Rain = 0
KCH1 140339Z 06007KT 09/M03 A3031 RMK A01 T00851031  RH  044%=      5-min Rain = 0
KCH1 140340Z 06007KT 09/M03 A3031 RMK A01 T00851031  RH  044%=      5-min Rain = 0
KCH1 140341Z 06007KT 09/M03 A3031 RMK A01 T00851031  RH  044%=      5-min Rain = 0
KCH1 140342Z 06007KT 08/M03 A3031 RMK A01 T00841032  RH  044%=      5-min Rain = 0
KCH1 140343Z 06007KT 08/M03 A3031 RMK A01 T00831032  RH  044%=      5-min Rain = 0
KCH1 140344Z 06007KT 08/M03 A3031 RMK A01 T00831031  RH  044%=      5-min Rain = 0
KCH1 140345Z 06007KT 08/M03 A3031 RMK A01 T00821032  RH  044%=      5-min Rain = 0
KCH1 140346Z 06007KT 08/M03 A3031 RMK A01 T00821032  RH  044%=      5-min Rain = 0
KCH1 140347Z 06007KT 08/M03 A3031 RMK A01 T00821032  RH  044%=      5-min Rain = 0
KCH1 140348Z 06007KT 08/M03 A3031 RMK A01 T00821032  RH  044%=      5-min Rain = 0
KCH1 140349Z 06007KT 08/M03 A3031 RMK A01 T00811032  RH  045%=      5-min Rain = 0
KCH1 140350Z 06007KT 08/M03 A3031 RMK A01 T00811032  RH  045%=      5-min Rain = 0
KCH1 140351Z 06008KT 08/M03 A3031 RMK A01 T00811032  RH  045%=      5-min Rain = 0
KCH1 140352Z 06007KT 08/M03 A3031 RMK A01 T00801032  RH  045%=      5-min Rain = 0
KCH1 140353Z 06008KT 08/M03 A3031 RMK A01 T00801032  RH  045%=      5-min Rain = 0
KCH1 140354Z 06008KT 08/M03 A3031 RMK A01 T00801032  RH  045%=      5-min Rain = 0
KCH1 140355Z 06008KT 08/M03 A3031 RMK A01 T00811032  RH  045%=      5-min Rain = 0
KCH1 140356Z 06008KT 08/M03 A3031 RMK A01 T00811032  RH  045%=      5-min Rain = 0
KCH1 140357Z 06008KT 08/M03 A3031 RMK A01 T00811032  RH  045%=      5-min Rain = 0
KCH1 140358Z 06008KT 08/M03 A3031 RMK A01 T00811032  RH  045%=      5-min Rain = 0
KCH1 140359Z 06008KT 08/M03 A3031 RMK A01 T00811032  RH  045%=      5-min Rain = 0
KCH1 140400Z 06008KT 08/M03 A3031 RMK A01 T00811032  RH  045%=      5-min Rain = 0
KCH1 140401Z 06007KT 08/M03 A3031 RMK A01 T00811032  RH  045%=      5-min Rain = 0
KCH1 140402Z 06007KT 08/M03 A3031 RMK A01 T00811032  RH  045%=      5-min Rain = 0
KCH1 140403Z 06008KT 08/M03 A3031 RMK A01 T00801033  RH  045%=      5-min Rain = 0
KCH1 140404Z 06007KT 08/M03 A3031 RMK A01 T00801032  RH  045%=      5-min Rain = 0
KCH1 140405Z 06007KT 08/M03 A3031 RMK A01 T00791032  RH  045%=      5-min Rain = 0
KCH1 140406Z 06007KT 08/M03 A3031 RMK A01 T00781033  RH  045%=      5-min Rain = 0
KCH1 140407Z 06007KT 08/M03 A3031 RMK A01 T00781033  RH  045%=      5-min Rain = 0
KCH1 140408Z 06007KT 08/M03 A3031 RMK A01 T00791033  RH  045%=      5-min Rain = 0
KCH1 140409Z 06007KT 08/M03 A3031 RMK A01 T00801033  RH  045%=      5-min Rain = 0
KCH1 140410Z 06007KT 08/M03 A3031 RMK A01 T00801033  RH  045%=      5-min Rain = 0
KCH1 140411Z 06007KT 08/M03 A3031 RMK A01 T00801033  RH  045%=      5-min Rain = 0
KCH1 140412Z 06007KT 08/M03 A3032 RMK A01 T00791033  RH  045%=      5-min Rain = 0
KCH1 140413Z 06007KT 08/M03 A3032 RMK A01 T00791033  RH  045%=      5-min Rain = 0
KCH1 140414Z 06007KT 08/M03 A3032 RMK A01 T00791033  RH  045%=      5-min Rain = 0
KCH1 140415Z 06007KT 08/M03 A3032 RMK A01 T00791033  RH  045%=      5-min Rain = 0
KCH1 140416Z 06007KT 08/M03 A3032 RMK A01 T00791033  RH  045%=      5-min Rain = 0
KCH1 140417Z 06007KT 08/M03 A3032 RMK A01 T00791033  RH  045%=      5-min Rain = 0
KCH1 140418Z 06007KT 08/M03 A3032 RMK A01 T00781033  RH  045%=      5-min Rain = 0
KCH1 140419Z 06007KT 08/M03 A3032 RMK A01 T00791033  RH  045%=      5-min Rain = 0
KCH1 140420Z 06007KT 08/M03 A3032 RMK A01 T00781033  RH  045%=      5-min Rain = 0
KCH1 140421Z 07007KT 08/M03 A3032 RMK A01 T00781033  RH  045%=      5-min Rain = 0
KCH1 140422Z 07006KT 08/M03 A3032 RMK A01 T00781033  RH  045%=      5-min Rain = 0
KCH1 140423Z 07006KT 08/M03 A3032 RMK A01 T00771034  RH  045%=      5-min Rain = 0
KCH1 140424Z 07006KT 08/M03 A3032 RMK A01 T00781033  RH  045%=      5-min Rain = 0
KCH1 140425Z 07005KT 08/M03 A3032 RMK A01 T00771034  RH  045%=      5-min Rain = 0
KCH1 140426Z 08005KT 08/M03 A3032 RMK A01 T00771033  RH  045%=      5-min Rain = 0
KCH1 140427Z 07005KT 08/M03 A3032 RMK A01 T00761034  RH  046%=      5-min Rain = 0
KCH1 140428Z 07006KT 08/M03 A3032 RMK A01 T00761034  RH  046%=      5-min Rain = 0
KCH1 140429Z 07006KT 08/M03 A3032 RMK A01 T00761033  RH  046%=      5-min Rain = 0
KCH1 140430Z 07006KT 08/M03 A3032 RMK A01 T00761034  RH  046%=      5-min Rain = 0
KCH1 140431Z 07006KT 08/M03 A3032 RMK A01 T00771033  RH  046%=      5-min Rain = 0
KCH1 140432Z 07006KT 08/M03 A3032 RMK A01 T00761034  RH  046%=      5-min Rain = 0
KCH1 140433Z 07005KT 08/M03 A3032 RMK A01 T00761034  RH  046%=      5-min Rain = 0
KCH1 140434Z 07006KT 08/M03 A3032 RMK A01 T00751034  RH  046%=      5-min Rain = 0
KCH1 140435Z 07005KT 08/M03 A3032 RMK A01 T00751034  RH  046%=      5-min Rain = 0
KCH1 140436Z 07005KT 07/M03 A3032 RMK A01 T00741034  RH  046%=      5-min Rain = 0
KCH1 140437Z 07005KT 07/M03 A3032 RMK A01 T00731034  RH  046%=      5-min Rain = 0
KCH1 140438Z 07005KT 07/M03 A3032 RMK A01 T00741034  RH  046%=      5-min Rain = 0
KCH1 140439Z 07005KT 07/M03 A3032 RMK A01 T00741034  RH  046%=      5-min Rain = 0
KCH1 140440Z 07004KT 07/M04 A3032 RMK A01 T00731035  RH  046%=      5-min Rain = 0
KCH1 140441Z 07004KT 07/M04 A3032 RMK A01 T00731035  RH  046%=      5-min Rain = 0
KCH1 140442Z 07004KT 07/M03 A3032 RMK A01 T00731034  RH  046%=      5-min Rain = 0
KCH1 140443Z 07004KT 07/M03 A3032 RMK A01 T00731034  RH  046%=      5-min Rain = 0
KCH1 140444Z 07005KT 07/M04 A3032 RMK A01 T00741035  RH  046%=      5-min Rain = 0
KCH1 140445Z 07005KT 07/M04 A3032 RMK A01 T00741035  RH  046%=      5-min Rain = 0
KCH1 140446Z 07005KT 07/M04 A3032 RMK A01 T00741035  RH  046%=      5-min Rain = 0
KCH1 140447Z 07005KT 07/M04 A3032 RMK A01 T00741035  RH  046%=      5-min Rain = 0
KCH1 140448Z 07005KT 07/M04 A3032 RMK A01 T00741035  RH  046%=      5-min Rain = 0
KCH1 140449Z 07005KT 07/M04 A3032 RMK A01 T00741035  RH  046%=      5-min Rain = 0
KCH1 140450Z 07005KT 07/M04 A3032 RMK A01 T00731035  RH  046%=      5-min Rain = 0
KCH1 140451Z 06006KT 07/M04 A3032 RMK A01 T00721035  RH  046%=      5-min Rain = 0
KCH1 140452Z 07005KT 07/M04 A3032 RMK A01 T00711035  RH  047%=      5-min Rain = 0
KCH1 140453Z 07005KT 07/M04 A3032 RMK A01 T00701035  RH  047%=      5-min Rain = 0
KCH1 140454Z 07005KT 07/M04 A3032 RMK A01 T00691035  RH  047%=      5-min Rain = 0
KCH1 140455Z 07005KT 07/M04 A3032 RMK A01 T00681035  RH  048%=      5-min Rain = 0
KCH1 140456Z 07005KT 07/M04 A3032 RMK A01 T00671036  RH  048%=      5-min Rain = 0
KCH1 140457Z 07005KT 07/M04 A3032 RMK A01 T00671035  RH  048%=      5-min Rain = 0
KCH1 140458Z 07005KT 07/M04 A3032 RMK A01 T00671035  RH  048%=      5-min Rain = 0
KCH1 140459Z 06005KT 07/M04 A3032 RMK A01 T00671035  RH  048%=      5-min Rain = 0

Page generated in 0.0772 seconds.